GFSCGP_sfc_thetae_060.txt.gz
Theta_e
296 291 288 292 292 291 289 288 286 289 293 293 292 293 297 300 304 302 304 307 306 305 307 310 312 314 314 315 315 315 314 315 315 316 315 315 314 314 316 318 321 322 322 322
291 289 294 296 294 292 291 288 288 292 295 294 291 293 295 299 301 304 305 305 305 305 308 310 310 312 312 312 314 314 314 315 315 318 318 315 314 313 315 316 317 320 321 321
291 293 297 295 292 291 290 288 288 290 293 292 292 291 293 299 300 306 308 308 307 306 306 308 308 310 311 311 312 314 314 314 315 315 314 311 311 313 312 313 314 316 317 318
292 296 294 292 291 292 287 294 293 291 288 284 290 282 288 292 298 302 304 307 307 306 308 308 307 307 311 312 313 313 314 314 314 314 314 311 312 311 311 312 314 315 317 316
291 293 293 291 292 294 291 295 293 292 288 286 287 283 287 296 295 298 301 304 307 308 308 307 307 308 310 312 312 312 311 313 314 312 312 310 306 309 309 313 313 314 315 315
293 296 295 295 296 296 298 294 292 291 288 281 287 285 285 289 295 297 300 304 307 308 308 309 309 307 307 308 310 311 309 310 312 312 312 311 309 307 306 307 309 311 312 313
291 292 294 296 292 294 293 289 282 281 281 281 289 286 289 294 296 299 300 302 306 309 308 308 307 306 306 306 307 308 310 309 309 310 311 312 309 308 307 306 307 308 309 310
285 282 291 295 293 290 291 291 283 279 279 282 289 286 291 297 299 300 301 302 305 306 308 308 309 308 307 307 308 308 308 309 310 309 308 310 312 311 309 308 308 309 310 310
285 285 294 295 296 296 290 287 293 285 285 283 285 290 295 297 297 296 300 302 303 306 307 309 309 309 308 308 308 308 308 309 309 309 309 308 309 312 312 310 308 310 311 312
291 285 294 296 296 295 294 295 287 286 281 279 283 285 287 293 295 296 297 301 303 305 307 309 310 309 310 309 309 309 309 308 309 309 310 309 309 310 312 312 311 311 313 313
292 288 289 294 290 289 290 288 290 290 286 281 280 283 293 294 297 297 296 298 302 303 306 309 310 311 311 311 310 309 309 309 308 309 309 310 310 310 310 311 312 313 314 317
294 290 285 289 294 295 291 290 292 285 283 284 282 286 294 296 297 297 297 297 296 302 305 308 310 311 311 310 310 309 309 309 310 310 309 310 311 311 310 310 312 313 315 318
297 288 282 285 289 291 289 291 292 291 288 284 283 285 297 297 297 297 297 297 298 298 302 305 307 311 311 311 311 311 311 310 311 312 310 310 310 310 310 311 312 314 316 318
300 293 286 283 286 291 288 290 292 291 283 284 285 288 294 296 297 299 298 298 299 298 299 302 305 309 312 312 312 312 312 313 312 312 312 311 310 311 311 313 314 316 318 318
296 288 291 292 293 293 291 291 290 288 289 286 288 289 294 296 297 299 300 300 300 300 299 300 304 307 310 312 312 313 313 314 314 313 312 313 314 314 315 316 316 317 318 318
296 287 288 288 292 292 289 291 291 290 290 290 291 290 297 299 298 298 299 299 299 300 300 299 303 304 307 311 312 314 314 314 314 314 314 315 315 316 316 317 317 317 318 319
290 287 285 283 289 288 283 288 290 292 293 292 289 293 298 297 298 298 300 300 300 300 300 299 301 305 307 308 311 312 314 314 315 315 315 315 315 315 316 317 317 318 317 313
290 288 286 283 285 279 289 294 294 292 293 294 294 295 298 298 300 299 300 299 299 299 301 300 300 302 306 308 308 308 309 311 314 315 315 315 315 316 317 315 314 311 308 308
296 289 285 280 280 284 288 292 291 290 291 295 294 295 297 298 294 295 298 298 299 299 300 300 300 301 304 309 310 310 310 311 312 312 312 313 316 315 310 309 304 302 303 302
292 291 285 284 278 276 285 295 298 298 286 296 297 296 296 296 289 294 302 300 300 299 298 299 300 302 307 308 310 311 312 310 311 311 312 312 311 308 305 303 302 300 300 296
286 285 284 283 282 283 291 296 299 285 285 296 298 299 298 294 295 298 299 300 299 302 304 306 307 307 308 309 310 307 309 311 308 307 306 306 306 304 302 299 298 296 294 290
284 283 280 283 281 277 294 294 292 294 297 298 299 299 300 300 300 300 300 300 300 302 306 307 307 305 305 306 307 302 302 301 303 302 301 300 300 298 297 295 294 291 289 286
280 284 282 284 284 292 294 295 298 299 298 299 299 300 302 300 298 299 300 300 300 302 304 304 304 302 302 304 304 301 296 297 298 298 297 296 295 295 295 292 290 288 287 285
286 290 285 285 288 291 293 295 297 298 299 301 302 302 301 301 300 299 299 299 299 300 301 302 302 300 298 299 299 297 298 298 297 295 293 292 290 289 289 289 289 287 285 284
285 288 287 286 291 293 294 296 297 296 300 300 301 302 302 301 301 301 301 300 299 299 300 300 299 296 296 297 298 299 298 297 293 290 289 287 286 285 283 283 284 284 285 286
290 288 284 283 292 292 292 295 294 294 295 295 294 298 294 292 294 298 300 299 299 297 297 294 293 291 291 291 290 293 294 292 289 285 284 283 283 282 283 282 280 284 284 283

GFSCGP_sfc_thetae_063.txt.gz
Theta_e
299 296 291 293 296 295 294 292 291 294 297 296 297 297 300 303 309 310 312 312 310 309 312 313 314 316 316 317 317 318 317 319 320 318 317 317 318 323 324 324 322 324 323 323
295 293 298 297 296 295 294 293 292 295 297 297 298 297 302 303 305 309 311 311 311 310 310 312 312 315 314 316 317 317 316 317 319 320 320 319 321 321 322 323 323 323 323 324
293 295 299 296 294 293 293 292 292 292 295 297 296 296 298 302 305 307 310 311 312 311 308 310 310 312 314 314 316 316 316 316 317 319 316 315 315 316 318 320 321 323 325 325
293 298 295 295 293 295 290 295 295 293 292 290 296 288 295 299 300 304 307 311 313 312 313 311 311 311 312 315 318 318 316 316 316 317 316 316 316 314 318 318 322 321 323 324
292 294 294 292 294 296 293 297 295 294 292 291 292 290 294 297 299 302 306 309 313 314 313 312 311 312 313 315 316 317 316 317 316 316 316 313 315 317 315 315 318 319 320 321
295 299 298 297 297 297 298 296 295 294 293 286 292 291 293 295 299 301 305 307 310 313 313 314 314 313 312 314 316 317 316 317 316 315 316 315 314 313 313 312 314 316 320 320
293 294 297 299 295 297 297 294 287 285 285 286 292 289 294 299 302 302 304 306 309 313 313 313 311 310 310 311 315 315 315 315 316 315 315 315 316 315 315 313 315 317 318 319
287 285 294 298 296 293 294 293 288 282 283 287 291 289 294 302 304 305 305 306 308 312 314 314 313 312 311 310 314 314 313 314 315 316 316 317 317 316 316 315 316 317 319 320
287 287 295 296 298 298 293 290 297 289 289 288 290 294 299 302 302 302 303 306 308 311 313 314 314 314 313 312 312 313 313 313 315 315 316 316 317 317 317 317 318 317 318 318
293 287 295 296 298 297 297 298 290 290 283 282 287 289 291 298 300 302 304 304 308 310 312 314 314 315 314 314 314 314 315 314 315 315 316 315 316 318 318 319 317 318 319 318
295 292 291 295 293 292 293 292 293 294 290 286 284 288 299 300 302 302 304 305 304 309 312 313 315 316 316 315 314 314 314 314 315 316 316 316 316 316 317 318 318 319 319 319
296 292 286 290 295 297 296 294 295 289 287 289 288 290 299 302 302 302 304 304 305 304 310 313 315 315 315 315 314 314 314 314 315 316 316 316 316 316 315 315 316 319 319 319
298 290 285 287 292 294 292 294 295 294 291 289 287 289 299 301 302 303 303 305 305 305 305 310 314 314 315 315 315 314 314 315 315 315 315 316 316 316 315 315 316 318 317 318
300 294 288 284 288 293 290 292 294 294 288 289 290 292 297 299 302 305 305 306 306 306 306 307 311 314 316 316 315 315 315 316 315 315 314 314 314 315 316 317 317 317 317 317
298 289 292 293 293 293 292 292 293 291 292 289 292 292 296 299 301 304 306 304 304 305 304 305 308 312 315 316 316 316 316 316 316 315 315 315 316 316 316 316 317 317 317 318
292 290 291 289 293 292 290 293 292 292 293 293 293 293 300 302 301 301 303 304 304 305 306 307 306 309 312 314 316 317 317 318 317 316 315 316 317 316 316 317 317 317 318 318
288 290 288 284 289 289 287 290 291 293 294 294 290 296 301 300 301 301 304 305 304 305 306 306 306 306 311 314 316 317 318 318 317 317 317 317 317 317 317 317 318 318 319 320
287 289 287 285 286 278 291 296 295 294 295 296 296 297 299 300 302 304 305 305 305 305 305 306 307 307 309 312 314 317 318 318 317 317 317 318 318 317 318 319 319 320 320 318
291 288 286 283 283 286 289 293 294 293 293 297 297 299 300 302 300 301 303 303 303 304 305 306 307 307 308 309 312 313 314 317 317 317 317 318 318 318 318 318 319 312 310 306
290 291 288 285 281 279 289 296 299 299 288 298 299 298 299 300 296 299 305 305 305 306 305 306 306 305 305 307 313 312 312 313 315 317 318 319 319 318 315 308 305 302 303 298
285 287 284 284 283 286 293 297 299 286 288 300 300 300 300 298 301 304 305 305 305 305 306 310 311 310 311 312 314 314 314 313 314 313 314 313 314 311 307 302 300 298 294 291
285 284 284 286 283 280 295 297 291 296 300 300 301 301 301 303 303 304 304 304 304 304 306 310 311 308 308 311 313 311 310 307 309 308 306 304 303 301 301 299 296 292 290 287
284 289 288 288 288 294 297 297 298 299 298 300 300 302 302 301 302 303 303 304 304 304 305 307 307 306 306 308 309 306 301 304 303 301 298 297 297 298 296 292 290 288 287 286
289 292 289 289 291 294 296 298 299 298 298 299 296 298 301 300 302 303 304 303 303 303 303 304 303 300 299 301 302 302 301 301 299 296 295 294 292 290 290 290 289 288 286 285
289 291 289 289 292 296 296 296 295 296 297 295 294 293 291 292 295 298 301 299 300 300 298 298 297 294 293 294 296 299 301 299 294 292 290 288 287 285 284 284 285 285 286 287
293 290 289 288 291 290 293 297 293 293 292 291 290 289 288 288 288 293 290 289 289 289 290 290 290 290 289 287 287 290 293 294 290 288 288 287 286 285 283 282 281 283 283 283

GFSCGP_sfc_thetae_066.txt.gz
Theta_e
304 299 296 299 301 300 299 297 297 299 301 299 299 301 305 308 310 313 315 317 318 318 321 319 319 317 319 319 319 321 319 319 323 322 320 320 321 323 322 322 324 327 325 326
301 296 300 303 301 299 298 296 297 299 301 300 299 301 306 308 308 311 314 316 318 318 319 317 318 318 318 319 320 319 320 322 321 322 321 323 324 323 323 322 323 325 327 324
297 297 302 301 298 296 297 296 297 296 299 301 300 299 302 306 309 311 314 316 318 318 318 317 316 317 317 318 319 319 319 320 323 322 322 319 320 320 322 322 322 323 325 322
296 299 298 299 297 298 294 300 298 297 295 291 301 292 300 303 304 307 310 315 316 318 319 319 318 317 320 317 320 322 320 319 320 321 319 319 315 313 323 323 323 321 325 323
295 295 295 295 297 300 296 300 299 298 296 295 295 294 298 302 301 304 308 312 317 319 320 320 319 318 319 321 319 322 321 319 319 319 318 317 315 316 321 321 323 320 323 325
297 302 298 298 300 301 301 298 298 298 296 289 295 295 296 300 301 304 307 310 314 319 320 321 321 320 320 321 322 321 322 320 319 318 319 317 320 320 320 318 320 319 320 323
292 296 300 301 297 300 299 296 289 288 289 287 297 295 298 303 305 307 308 310 314 318 320 321 320 319 319 319 320 319 320 320 320 318 319 318 319 318 316 318 317 318 318 319
285 286 296 300 298 296 296 296 291 284 287 290 297 291 298 305 307 309 310 311 312 316 320 321 321 321 319 319 320 321 320 320 320 321 320 321 319 318 320 318 318 317 319 321
288 288 298 300 301 300 296 294 300 293 295 292 295 297 302 305 306 307 309 310 312 315 318 320 322 322 321 319 320 321 321 321 321 322 322 320 321 321 322 323 322 321 320 321
294 289 296 298 301 302 300 301 292 294 286 285 291 293 294 300 302 304 308 310 312 316 318 320 321 322 322 321 320 322 321 320 322 322 323 323 323 323 323 324 323 323 324 324
296 294 293 297 295 295 296 295 297 297 294 289 287 293 302 303 304 305 308 310 311 315 318 319 321 323 323 323 321 320 320 320 321 322 322 322 323 325 325 324 324 324 324 324
296 295 291 293 299 301 300 297 297 292 291 294 294 294 303 305 307 307 308 309 312 311 315 320 321 322 323 322 321 320 320 320 321 322 322 322 323 323 323 323 324 325 325 325
298 292 287 289 294 298 296 298 298 297 297 292 290 293 304 304 306 308 308 310 311 312 312 316 320 321 321 322 322 321 321 320 321 321 321 322 322 322 322 322 322 323 323 324
300 295 290 286 289 294 292 295 297 296 291 292 293 295 299 301 303 305 308 310 312 313 312 314 317 319 321 322 323 322 322 322 321 320 320 320 322 322 323 322 322 323 323 322
296 290 294 294 295 295 294 294 296 294 295 292 295 295 299 302 303 306 308 309 310 310 311 312 313 317 320 322 322 323 323 323 322 321 320 321 322 322 322 322 322 323 323 322
295 289 291 289 293 294 293 295 296 297 297 296 297 296 304 305 306 306 305 308 308 310 311 312 313 314 316 320 322 322 322 323 323 321 321 321 321 321 321 322 322 322 322 321
289 289 288 285 291 290 288 294 295 296 297 297 294 299 303 303 304 306 307 306 308 309 310 311 313 314 315 317 320 322 323 324 322 321 322 322 322 321 321 321 320 320 321 321
288 291 289 286 288 279 293 299 298 297 298 299 299 301 303 304 306 307 308 307 306 309 309 310 312 313 314 315 318 322 323 323 323 322 321 321 321 321 322 321 320 321 322 321
293 290 289 284 284 289 291 295 295 294 295 299 299 302 303 305 307 306 308 309 309 311 312 312 313 313 315 313 313 315 318 322 322 321 322 322 322 321 321 321 322 323 323 322
292 293 290 287 282 279 291 298 301 301 290 298 301 301 301 303 299 303 308 309 310 311 312 312 313 316 316 317 315 313 314 317 319 321 322 323 323 323 322 323 322 322 322 314
285 287 285 286 285 288 295 299 301 287 291 300 300 301 301 299 303 307 309 308 310 311 312 314 316 316 315 316 318 315 314 314 317 320 322 322 323 323 323 322 315 306 298 295
286 285 285 286 283 282 299 298 292 298 301 302 303 304 304 305 306 306 306 308 309 310 311 313 313 312 312 314 317 316 315 315 317 318 318 317 315 308 308 303 299 297 294 289
287 291 290 290 290 300 301 300 303 302 301 302 302 302 302 303 305 306 306 308 309 309 310 311 309 308 306 305 309 310 305 305 303 302 301 299 297 297 297 296 293 291 290 288
293 295 292 291 295 297 299 302 302 302 301 300 300 300 299 297 300 300 304 306 306 306 304 305 306 304 301 297 296 298 301 301 299 296 294 294 292 291 292 291 290 289 287 286
293 294 291 291 295 298 299 300 299 299 300 299 298 297 294 294 295 297 299 297 297 297 297 298 299 298 296 295 292 292 294 296 293 292 290 288 287 286 284 284 286 286 287 287
297 293 292 291 294 293 295 297 296 296 296 296 294 292 293 292 292 293 292 292 292 292 292 289 288 287 289 290 289 288 289 291 290 288 288 286 286 285 284 282 281 284 284 283

GFSCGP_sfc_thetae_069.txt.gz
Theta_e
300 297 296 299 300 301 301 300 299 303 306 303 302 302 306 309 310 311 314 316 319 321 323 323 322 323 323 322 322 321 319 320 321 322 322 319 319 320 321 322 325 326 327 327
295 294 299 301 302 301 300 298 299 302 304 302 301 301 304 307 309 311 313 315 317 321 321 322 322 321 320 321 321 322 321 321 321 324 323 322 320 321 320 322 323 327 328 326
292 297 300 300 300 299 300 299 299 299 302 303 301 299 302 307 309 310 312 314 317 320 320 321 321 321 321 320 322 322 322 322 323 324 323 322 322 321 319 320 321 324 327 326
297 300 299 298 298 301 296 302 301 299 298 294 302 292 301 305 306 308 310 313 314 318 322 322 321 320 322 320 322 323 323 323 322 324 323 321 320 318 318 318 321 321 326 325
294 297 296 296 298 302 299 303 301 300 298 298 297 294 299 304 302 305 308 311 315 318 322 322 322 321 323 322 320 322 322 322 323 324 324 320 318 322 320 319 319 321 323 325
293 300 299 298 300 302 303 301 300 300 298 291 296 296 297 301 303 304 308 310 315 318 321 323 323 323 321 324 323 323 321 321 322 323 323 321 320 320 317 320 319 319 321 325
293 294 299 301 295 300 299 297 290 289 289 288 299 296 299 304 306 306 308 310 314 318 321 322 321 322 320 322 324 323 322 319 320 320 322 324 322 317 317 321 322 319 319 321
287 285 295 300 298 295 298 297 292 286 287 292 299 293 299 307 308 310 310 312 313 316 321 322 322 322 321 321 323 324 322 320 321 320 320 323 323 322 321 322 324 322 321 319
288 286 297 300 300 299 296 294 300 294 296 294 296 300 304 307 306 308 308 311 313 316 320 322 323 323 323 322 322 323 322 323 322 321 321 322 325 323 323 323 324 325 324 320
292 287 296 298 300 301 299 302 292 294 287 286 293 296 297 301 303 306 308 310 313 316 319 321 323 323 324 323 323 324 324 323 323 323 323 322 323 324 324 325 324 324 324 324
295 292 292 297 295 294 294 295 297 297 295 289 288 294 305 304 305 306 309 310 312 316 318 321 323 325 325 325 323 323 323 323 323 324 324 324 324 324 325 326 326 326 327 326
295 292 288 293 300 301 299 298 298 293 291 295 295 295 305 307 308 308 308 310 312 313 319 320 323 324 325 325 324 322 323 323 324 325 324 326 327 326 326 326 327 328 327 328
293 291 285 288 295 299 296 299 299 299 298 292 291 294 307 306 305 308 309 310 312 313 314 318 321 322 323 325 325 323 323 323 323 324 324 326 327 327 327 328 328 328 327 327
296 293 290 287 291 295 294 297 299 298 293 293 294 297 302 303 303 305 308 310 312 313 314 315 318 321 323 324 325 325 324 324 323 322 322 324 326 326 327 328 328 328 328 327
294 289 293 294 296 296 295 295 297 295 296 293 295 296 300 302 303 305 307 309 310 311 312 313 315 318 321 323 325 325 325 325 325 323 322 323 327 327 326 327 327 327 327 326
293 288 290 291 295 295 293 295 295 296 297 297 297 296 303 305 306 306 306 308 308 310 312 313 314 316 317 320 323 324 325 327 326 325 324 324 325 325 326 327 327 327 326 326
289 288 287 286 291 291 288 294 295 296 298 299 294 299 304 303 304 306 307 309 308 309 311 312 313 314 316 318 320 323 325 326 327 326 325 325 325 325 325 326 325 325 325 326
289 288 289 285 289 280 294 301 299 297 298 300 301 301 303 303 306 309 310 308 308 309 311 313 315 315 316 318 318 319 322 325 325 324 325 325 326 325 325 325 324 325 325 324
294 290 287 282 284 288 292 296 297 296 295 300 300 302 303 304 306 308 311 310 310 311 311 313 316 317 318 319 320 317 316 319 323 324 325 325 326 325 325 324 324 325 325 324
293 293 289 287 281 279 290 299 302 300 290 300 301 301 301 302 297 301 307 310 310 311 312 313 315 316 316 317 319 319 317 315 316 322 324 325 326 325 325 326 325 326 325 324
288 288 285 286 285 288 297 300 302 288 290 301 303 303 303 301 303 307 309 309 311 312 312 314 314 313 312 312 315 317 317 315 318 320 321 323 325 326 326 326 326 326 319 303
287 286 285 287 284 282 301 299 293 299 303 303 303 303 302 303 305 306 308 309 310 311 311 312 312 311 308 307 310 310 306 308 312 315 313 310 310 312 315 314 308 305 299 293
287 291 289 290 290 300 303 301 303 304 302 301 302 302 302 302 302 303 304 307 308 309 308 308 309 307 303 299 298 298 298 300 301 301 300 298 297 296 296 296 295 293 293 291
294 297 294 293 297 298 301 303 302 303 302 302 301 300 300 299 300 300 303 302 302 302 301 302 303 300 296 293 292 292 295 295 293 291 290 290 289 289 289 290 290 288 288 286
294 295 293 293 296 299 301 301 300 301 301 300 300 299 298 297 297 297 298 297 297 297 296 296 295 293 290 289 288 289 290 293 290 288 287 286 285 284 283 282 284 284 285 286
296 294 291 292 297 297 298 299 298 298 297 297 297 296 296 295 294 294 294 292 290 290 290 290 288 289 288 288 286 287 287 289 288 286 285 284 284 283 282 281 281 283 283 283

GFSCGP_sfc_thetae_072.txt.gz
Theta_e
298 294 292 296 299 299 298 297 296 300 305 303 302 301 303 307 308 309 310 312 315 319 322 323 323 324 323 325 322 322 322 322 322 321 320 319 319 320 319 320 323 324 325 325
296 290 297 298 300 298 297 296 296 301 304 303 301 300 304 305 307 309 310 312 314 319 320 321 321 322 321 321 322 321 320 321 322 323 321 321 321 321 319 320 322 324 324 324
294 296 297 294 295 296 297 296 297 297 301 303 300 298 301 305 307 308 311 312 314 318 319 320 320 320 320 319 321 319 320 322 322 323 322 321 320 319 318 317 319 321 323 323
295 299 295 294 294 296 293 300 300 299 297 292 302 290 299 303 304 306 308 310 312 315 320 321 320 319 319 320 322 322 321 321 322 323 321 318 317 314 316 315 317 320 323 323
293 295 295 293 295 298 295 302 300 299 297 297 296 293 297 302 302 305 308 310 312 314 320 320 320 321 320 321 320 322 322 321 322 322 321 319 318 318 317 315 315 319 321 322
294 299 296 296 299 299 301 298 298 299 297 289 294 294 295 299 302 305 308 309 312 314 320 321 322 322 320 322 320 323 322 321 321 322 321 321 319 318 317 315 315 318 318 322
292 292 297 298 293 298 297 294 287 287 287 287 296 294 297 303 305 306 306 309 312 316 319 320 320 319 320 320 320 321 320 320 321 321 321 321 321 319 318 315 315 317 317 318
285 285 293 298 295 293 294 294 288 282 285 289 296 291 297 306 308 309 309 311 313 315 318 320 320 320 319 321 321 320 321 320 321 321 321 321 321 320 320 319 317 316 318 319
287 287 297 298 299 297 293 290 297 292 294 291 295 298 304 306 305 307 307 309 311 313 318 320 321 321 320 320 322 321 321 320 320 320 321 322 322 322 319 320 321 320 319 319
291 285 294 297 299 299 296 298 290 293 284 284 293 294 295 301 303 305 306 310 313 315 316 320 321 321 321 321 322 324 322 321 321 320 320 321 321 322 320 320 319 322 322 321
293 289 290 294 293 292 293 292 294 295 293 288 288 293 303 303 305 305 308 310 314 317 317 319 321 322 322 322 322 322 322 321 322 321 320 320 320 322 322 321 321 321 322 322
294 291 285 288 296 300 298 294 295 290 288 292 293 293 307 308 308 309 308 310 312 316 318 320 320 322 322 322 321 321 322 322 322 323 321 321 321 321 321 321 321 322 321 322
291 289 282 285 292 297 294 296 296 296 296 291 289 292 306 307 306 308 309 310 312 313 315 319 321 321 322 322 322 321 322 322 323 323 323 322 321 321 321 321 322 322 322 321
294 289 287 283 288 292 292 295 296 296 290 292 293 296 301 303 304 306 309 309 310 312 314 315 318 320 322 324 324 323 322 323 322 322 322 322 322 322 322 322 322 322 323 321
292 287 290 291 292 294 294 294 295 294 296 292 295 296 300 301 303 305 307 308 308 309 311 313 313 317 320 323 324 325 324 323 323 321 321 322 323 324 324 323 324 323 323 323
292 286 288 286 292 293 291 295 296 296 297 297 297 296 303 305 306 306 307 308 307 309 311 312 313 313 314 320 322 324 325 325 324 322 320 321 322 323 323 323 324 324 323 323
289 287 286 282 290 291 288 293 294 295 297 297 293 298 303 303 303 305 306 307 306 308 309 311 313 315 315 315 318 318 324 326 325 323 323 322 322 321 322 323 323 322 322 322
289 287 286 283 286 280 292 299 298 297 298 300 300 301 302 303 306 307 308 307 307 308 309 311 313 315 317 318 318 319 320 318 324 324 324 323 323 322 322 322 321 322 322 321
293 289 284 282 282 287 291 295 296 295 295 301 300 302 302 302 305 303 306 308 309 309 311 312 314 315 314 313 314 317 319 318 316 321 323 324 324 323 322 321 321 321 321 320
292 292 287 285 281 279 289 298 300 298 287 299 300 300 300 302 297 299 306 308 309 310 312 312 313 311 307 307 311 313 310 309 310 314 317 318 324 323 322 322 321 321 321 320
286 287 283 284 283 287 296 300 301 286 289 300 301 300 299 297 300 303 306 307 310 310 309 311 310 304 301 301 305 303 302 301 304 307 307 305 306 310 316 321 321 320 319 301
286 284 284 285 283 281 300 299 293 298 301 301 301 300 300 301 301 302 304 305 305 304 303 305 306 301 297 296 296 296 295 297 297 296 295 293 293 295 299 304 301 300 297 292
286 290 288 288 289 299 301 300 302 302 299 299 299 299 299 299 299 299 301 301 301 300 299 299 298 296 293 292 291 290 291 295 293 290 289 288 287 286 288 290 292 291 292 289
294 297 292 293 297 297 299 300 301 301 299 299 299 298 298 297 297 297 297 296 295 295 293 294 293 291 289 289 289 289 290 293 291 289 287 286 284 283 283 284 285 285 286 285
294 294 293 293 295 295 296 297 299 298 298 298 298 297 295 295 294 295 292 290 290 289 288 289 287 287 286 287 286 287 288 290 289 287 286 284 283 282 281 282 282 282 283 285
295 293 292 289 294 294 293 295 297 295 295 295 294 293 293 291 291 292 288 287 285 284 284 283 283 282 282 282 283 284 286 287 287 285 283 283 282 282 281 280 280 283 284 284

GFSCGP_sfc_thetae_075.txt.gz
Theta_e
296 287 285 288 294 295 295 294 292 296 300 299 298 297 299 301 300 301 301 303 306 313 315 318 319 319 320 321 322 321 320 321 322 320 320 319 318 321 321 322 322 323 323 324
293 286 292 295 297 296 295 293 291 296 300 299 298 299 298 299 299 301 304 303 305 312 315 316 317 317 318 320 321 321 320 321 321 321 321 321 319 320 321 322 322 322 322 322
291 295 299 296 292 292 291 290 293 293 298 299 297 295 295 300 302 303 304 306 307 314 313 314 316 315 315 319 320 319 319 320 322 322 321 321 320 319 318 319 319 320 321 323
294 298 296 295 292 293 287 295 296 296 294 288 298 287 293 297 300 302 302 304 306 314 315 315 315 314 314 316 320 320 320 320 322 322 319 319 317 315 316 318 319 320 322 322
290 294 293 292 293 294 291 298 297 297 293 292 293 289 292 297 297 300 302 302 304 314 314 314 314 315 315 315 319 319 320 320 321 321 320 318 317 318 318 317 317 319 320 322
293 296 295 294 297 297 299 295 296 295 293 285 291 290 289 293 297 301 303 304 304 314 315 315 316 316 315 317 319 320 319 319 321 321 320 318 317 316 315 315 315 316 318 320
289 291 295 297 292 296 295 292 285 284 284 283 294 291 292 297 301 302 301 302 305 314 314 314 314 314 315 315 318 320 319 317 320 320 319 318 318 316 315 313 312 314 316 317
282 281 292 296 293 291 293 291 287 281 281 285 294 287 292 301 304 304 303 304 308 313 315 315 315 314 315 316 316 319 319 319 319 320 319 320 319 317 315 314 312 313 316 318
284 285 295 296 298 296 292 288 294 289 290 285 292 293 298 301 302 302 303 304 304 311 313 315 315 315 316 316 316 317 317 318 320 319 320 320 320 319 318 316 314 314 316 318
290 283 293 296 298 298 295 297 287 287 281 281 288 291 289 296 298 300 300 301 304 308 314 315 315 314 317 317 317 317 318 317 318 320 321 320 320 320 319 319 316 315 316 318
293 288 288 294 292 290 292 290 291 291 289 284 283 289 300 301 302 300 302 304 307 307 313 315 316 316 316 318 318 317 318 318 318 318 319 320 320 320 320 318 318 317 317 316
293 290 284 287 295 298 294 293 293 287 286 289 287 288 304 303 304 303 304 305 306 310 311 315 316 316 315 316 318 318 318 318 318 318 318 318 320 321 320 318 318 318 319 319
290 288 282 284 289 294 291 294 295 293 292 287 285 289 304 304 303 303 304 304 306 308 311 313 316 316 316 316 317 318 319 318 318 318 317 317 317 318 319 320 320 318 318 319
294 287 284 281 286 289 288 292 295 292 288 288 290 294 300 301 301 302 304 304 306 308 309 311 312 315 317 317 317 318 318 319 319 319 318 317 316 317 317 319 320 320 319 318
291 283 287 289 290 291 290 290 292 292 292 289 293 295 298 301 302 302 305 306 306 307 308 310 310 311 314 317 317 318 318 319 320 319 318 318 318 318 318 318 319 319 319 319
291 283 286 285 290 289 288 292 292 295 294 294 295 295 301 304 304 303 304 304 305 306 308 310 312 313 313 314 315 317 318 319 320 318 318 319 320 320 319 319 319 319 319 319
289 285 282 280 288 287 284 291 293 295 297 296 292 297 302 302 302 302 302 304 304 306 308 310 310 310 310 310 312 313 316 318 319 319 318 318 318 319 320 320 320 319 319 319
287 286 284 281 284 279 289 297 297 295 297 299 299 301 302 301 302 302 304 303 304 307 309 309 307 305 304 305 310 312 310 310 311 314 316 318 318 318 319 320 320 320 320 319
291 287 282 279 280 285 291 294 293 294 291 296 297 301 301 303 301 299 304 306 306 307 308 305 302 300 299 299 304 305 304 305 305 306 307 306 309 310 319 317 318 319 319 319
289 289 284 283 279 278 289 296 298 298 287 297 298 297 298 299 291 295 303 301 300 301 303 301 298 296 294 295 300 299 299 299 299 300 300 299 299 301 302 307 310 316 318 318
283 284 281 281 280 284 296 298 299 285 287 300 298 298 296 294 296 300 301 299 298 297 297 299 295 292 291 292 295 293 293 294 295 296 296 294 293 294 294 298 299 299 305 305
282 282 280 282 279 278 299 297 291 296 300 298 297 297 297 297 298 297 297 294 293 293 293 294 292 290 290 290 290 289 289 292 293 292 291 289 289 289 289 289 291 292 293 293
283 287 284 285 285 297 299 299 299 298 296 296 295 296 297 295 295 294 292 291 289 289 289 291 290 289 287 287 287 286 287 291 290 289 287 286 286 285 286 285 285 285 288 287
292 294 290 290 294 295 296 297 297 298 296 296 295 294 294 292 293 290 289 288 286 286 286 287 286 285 283 284 284 285 287 289 289 286 284 284 283 282 283 284 283 283 283 283
288 294 291 286 288 292 293 294 295 295 295 294 293 291 290 290 289 287 285 284 283 283 284 283 283 282 282 283 283 284 285 287 286 284 284 282 282 281 281 281 282 282 282 283
289 285 286 285 290 289 288 292 293 291 291 290 289 287 286 286 285 284 282 281 280 280 280 281 280 281 281 281 282 283 284 284 284 282 282 281 281 281 280 280 280 283 283 284

GFSCGP_sfc_thetae_078.txt.gz
Theta_e
294 287 284 285 290 293 292 291 289 293 298 297 295 295 298 302 301 299 299 299 307 312 314 318 318 320 319 317 316 316 317 321 321 321 320 321 320 322 323 324 324 324 324 324
292 286 291 292 292 291 292 290 289 294 298 297 294 294 298 301 301 301 301 299 304 309 313 316 317 319 319 318 317 318 318 320 320 320 321 320 321 322 322 323 322 323 323 322
289 293 296 293 293 292 290 289 289 289 295 297 294 293 295 300 301 300 300 302 304 311 312 314 315 316 318 317 317 318 319 319 319 320 320 320 319 319 320 320 320 321 322 322
292 296 295 293 292 293 288 293 293 292 292 286 294 284 293 297 299 300 299 299 302 311 313 315 314 315 316 316 318 318 319 320 320 320 319 318 317 315 318 319 320 319 321 322
289 291 291 291 293 295 291 294 293 294 290 290 290 286 291 297 295 298 299 299 303 312 313 314 314 315 316 316 317 319 319 320 321 320 318 318 317 317 318 319 318 318 319 321
291 295 294 293 295 297 297 293 293 293 290 282 289 289 289 293 296 299 301 301 303 312 313 314 315 314 313 315 316 318 318 319 321 320 319 318 316 316 316 316 316 317 318 320
288 289 293 296 291 295 294 290 283 281 281 280 292 290 291 298 300 300 301 302 304 312 312 311 312 312 312 314 315 318 319 318 319 320 319 318 316 317 316 315 316 315 316 317
280 279 290 295 291 290 290 291 284 278 279 283 293 286 292 301 303 303 303 300 308 311 312 312 312 313 313 314 315 316 318 318 319 320 319 319 318 317 317 316 314 315 317 318
282 283 292 295 295 294 291 288 294 288 289 284 289 293 298 301 300 301 300 305 309 311 312 312 313 313 314 314 315 316 317 317 318 320 319 319 319 318 315 315 315 313 316 318
288 282 291 295 296 297 293 297 287 288 280 280 286 289 290 298 298 299 298 302 309 311 312 313 313 313 314 315 316 316 317 318 319 320 320 319 319 318 316 314 312 313 314 317
291 287 286 293 291 290 291 290 291 291 288 284 281 288 300 299 301 300 299 302 307 310 312 313 313 314 315 315 315 316 316 316 318 319 320 319 320 319 318 316 314 312 313 315
292 288 282 285 293 297 295 291 292 285 284 288 286 287 304 303 303 302 302 304 303 311 312 313 313 314 315 315 315 315 316 316 316 318 318 319 320 320 319 318 318 315 313 314
289 286 280 282 289 294 290 292 293 293 291 287 284 287 303 304 303 304 302 304 306 307 310 311 312 313 315 315 315 315 316 316 317 317 317 317 318 318 319 319 319 319 316 315
293 286 282 278 283 288 286 289 290 291 286 286 287 292 296 300 301 303 303 305 306 308 309 310 310 311 313 314 316 316 316 317 317 317 316 316 316 317 318 320 319 318 319 318
290 282 285 287 289 289 288 289 290 288 289 287 291 292 297 301 302 303 304 305 306 308 309 309 309 310 313 314 314 315 316 317 317 317 316 315 316 317 317 317 318 319 319 318
290 281 284 283 288 290 287 290 290 290 291 290 292 293 300 305 305 303 302 304 306 306 306 305 305 305 306 310 312 314 315 316 318 316 317 317 317 316 316 316 316 317 318 319
287 285 281 277 286 285 282 288 289 291 294 294 289 295 301 302 301 301 301 304 305 304 303 301 300 300 301 303 306 305 307 309 312 316 316 316 317 317 317 317 316 316 316 317
285 284 282 278 282 276 289 294 296 295 295 298 299 300 300 299 300 299 304 304 302 300 298 297 297 296 296 300 301 302 302 303 304 304 304 305 304 308 311 318 317 317 317 317
289 284 279 276 278 282 288 292 294 288 289 298 298 300 300 300 298 294 297 300 298 297 295 294 294 294 294 296 297 297 297 297 298 299 299 299 301 302 304 305 306 314 317 317
288 287 281 279 276 275 287 295 298 298 286 297 299 299 298 298 289 290 294 295 294 295 293 291 291 291 290 292 295 293 293 293 293 293 293 294 295 296 297 299 299 300 303 310
280 281 280 279 279 283 293 298 300 285 287 296 297 296 296 293 293 293 293 291 291 292 291 291 289 287 288 290 292 290 290 290 290 290 289 288 288 290 290 293 294 295 297 294
282 280 279 280 279 277 298 297 290 294 297 297 296 296 295 293 292 291 289 288 288 287 288 289 287 286 286 287 288 287 287 290 289 287 285 284 284 285 286 286 288 290 290 288
283 286 281 284 284 295 297 296 298 298 295 294 295 295 294 291 289 288 286 285 285 284 285 287 285 285 284 285 285 284 285 289 287 284 282 283 283 283 283 283 283 284 286 285
288 293 288 288 289 291 292 295 295 294 292 291 291 292 292 288 287 285 284 283 282 282 283 284 283 282 282 283 284 284 285 288 286 284 282 282 282 281 282 283 283 282 282 282
285 288 288 286 286 290 290 290 291 292 291 288 287 287 287 285 283 282 281 280 280 280 281 282 282 282 281 283 283 284 284 285 284 283 282 282 281 281 280 280 281 282 283 283
285 283 285 283 287 287 287 289 289 286 285 286 284 282 283 283 281 281 279 279 279 279 279 279 280 280 281 281 281 282 283 283 282 281 281 281 280 280 280 279 278 282 283 283

GFSCGP_sfc_thetae_084.txt.gz
Theta_e
291 285 281 284 287 287 287 285 284 285 291 290 290 291 294 296 295 294 295 296 297 297 300 305 313 316 315 314 317 317 315 315 320 321 323 324 323 323 324 327 328 327 326 327
290 284 288 289 288 286 285 283 283 287 291 290 289 289 293 295 296 297 296 297 297 296 307 311 314 315 316 315 317 317 317 317 321 318 322 323 323 325 325 326 325 323 322 321
288 291 295 291 289 286 285 284 285 286 291 291 289 287 290 294 296 298 298 299 299 299 303 312 314 314 316 315 315 315 316 317 319 321 321 321 321 321 323 324 323 321 320 318
289 293 293 290 288 288 284 292 291 289 286 280 289 280 288 291 294 297 298 297 299 299 305 313 314 314 316 316 316 316 316 317 318 320 320 319 318 318 319 322 323 320 319 318
287 290 291 289 290 293 288 294 291 290 286 285 285 282 285 291 291 294 296 298 299 299 307 312 313 315 318 316 316 316 315 315 319 319 320 319 318 318 320 321 320 321 320 318
288 292 292 290 293 293 294 290 289 288 288 279 283 283 282 287 291 294 297 299 301 299 308 313 313 316 317 316 315 316 315 316 318 319 319 318 316 317 318 318 318 319 320 319
287 288 291 294 288 292 290 286 277 276 279 277 286 283 285 292 295 296 298 299 301 301 307 311 312 314 314 314 314 314 315 315 318 316 317 317 317 316 318 317 317 318 318 318
280 278 287 293 289 286 287 286 280 275 276 279 288 280 286 299 302 302 303 302 300 299 308 311 312 314 314 314 314 314 313 314 317 318 317 317 317 317 318 318 318 318 319 319
281 281 290 292 292 291 289 285 290 285 285 282 284 288 295 300 300 302 302 303 303 302 305 310 312 314 314 313 314 314 313 315 316 316 317 317 316 316 316 316 318 318 319 319
286 280 288 292 292 292 290 294 286 286 275 276 281 283 288 294 295 299 300 301 305 305 304 310 311 313 314 314 314 314 314 315 317 317 317 317 316 317 317 316 313 314 317 318
289 285 284 290 288 286 289 287 289 288 286 279 276 282 298 296 297 298 300 304 305 304 308 310 311 312 314 314 314 314 313 313 314 318 316 317 317 316 314 313 312 312 312 314
291 287 281 283 289 293 291 288 289 284 281 285 281 282 300 301 298 301 301 304 306 308 309 311 310 311 312 312 313 313 312 312 313 315 317 318 317 316 316 315 313 311 311 313
290 284 277 278 285 291 289 291 291 288 288 284 282 282 299 300 300 301 301 303 304 307 309 309 311 311 312 312 312 312 311 311 313 315 317 318 317 317 315 314 313 310 310 311
291 284 280 276 278 284 280 286 288 288 281 280 284 286 291 296 298 300 302 303 302 305 309 309 309 310 312 313 313 314 313 313 313 313 313 312 313 315 317 317 315 313 312 310
287 281 283 283 284 285 284 284 285 284 285 282 283 285 290 294 299 300 303 300 300 300 302 304 306 308 310 312 313 314 314 314 314 313 312 312 312 313 313 313 314 315 315 313
288 280 282 281 283 283 282 284 283 283 285 286 286 286 295 298 303 301 298 297 296 296 297 299 300 302 303 304 304 306 307 310 316 313 313 316 313 313 312 312 312 312 313 313
285 281 278 273 280 280 277 282 286 286 289 289 285 290 297 299 301 300 296 294 293 293 293 294 295 297 297 297 299 299 301 304 305 304 304 304 309 314 314 314 314 315 315 315
284 283 281 276 278 268 280 291 291 288 290 291 293 295 295 297 294 293 294 292 290 290 290 290 292 293 293 295 295 295 295 295 295 295 295 297 299 300 302 304 304 308 312 315
286 283 278 273 274 278 282 289 287 285 285 292 291 295 297 293 291 288 292 290 289 289 288 288 289 291 292 292 292 291 289 290 290 289 290 292 293 293 295 294 295 298 302 299
286 284 280 277 273 268 279 291 295 294 282 290 294 296 292 296 287 283 288 289 288 287 287 287 287 287 289 291 291 287 286 285 285 286 286 288 289 289 289 290 291 293 292 289
280 281 278 277 277 279 288 293 296 282 283 288 290 287 287 284 286 287 288 287 287 286 286 287 286 284 285 289 289 287 285 283 284 285 285 285 286 286 287 287 288 289 288 286
280 279 278 280 277 274 292 293 287 290 290 287 287 285 284 284 284 284 284 283 284 283 284 285 284 283 284 285 287 286 284 285 284 283 283 283 284 284 285 285 285 286 286 284
280 284 281 282 281 289 289 288 290 290 287 289 287 287 286 284 282 282 281 281 281 282 283 283 283 282 282 283 283 283 284 285 284 283 282 282 282 283 283 283 283 282 283 282
280 286 282 285 285 284 286 287 286 286 284 286 286 286 285 282 281 280 280 280 280 280 280 281 281 280 279 280 281 282 284 284 283 281 280 281 280 280 281 281 282 282 282 281
279 282 280 284 286 286 283 284 284 283 284 282 283 283 282 281 279 279 278 278 278 278 278 279 279 279 278 279 280 281 281 283 282 281 280 279 279 278 278 279 279 280 281 281
280 278 278 279 284 283 281 282 283 281 279 280 280 279 280 279 278 278 276 276 276 276 277 276 277 277 277 278 278 279 280 280 280 279 279 278 278 277 276 275 276 280 281 281

GFSCGP_sfc_thetae_090.txt.gz
Theta_e
294 290 289 292 292 292 290 289 290 294 296 293 293 294 297 301 302 303 304 305 306 308 313 315 317 319 320 326 330 332 336 333 333 333 332 331 329 329 328 328 328 328 329 329
291 288 293 294 293 291 291 288 288 292 294 294 294 295 299 301 302 303 304 305 306 308 310 313 315 317 323 325 329 331 335 330 334 336 335 332 329 329 329 328 327 328 328 330
289 292 295 292 291 289 290 288 289 289 293 296 296 293 297 300 303 304 305 307 307 308 309 310 313 316 323 325 328 330 333 332 335 335 333 331 330 328 328 326 325 326 328 329
294 297 294 293 291 291 287 293 291 291 291 287 295 286 294 297 299 302 305 308 309 310 311 311 312 315 321 326 329 330 332 334 333 334 331 329 327 323 326 325 327 327 326 327
291 292 292 291 292 294 290 296 294 294 292 291 292 289 293 297 297 301 307 310 312 313 311 312 312 315 320 326 328 330 332 332 332 331 331 328 325 326 329 329 325 325 326 325
293 298 296 295 296 296 298 295 294 293 292 285 290 290 292 297 298 303 308 311 312 314 315 314 315 316 321 326 324 327 330 330 330 330 329 328 326 324 326 323 322 320 319 323
291 292 296 298 294 297 295 290 284 283 283 283 292 289 293 298 304 306 307 310 313 315 317 316 317 319 322 323 320 323 327 327 328 328 327 326 325 326 326 321 318 317 316 316
285 283 291 296 293 290 292 291 286 278 281 286 291 287 294 304 307 308 310 311 312 314 317 318 317 321 323 320 318 320 323 326 325 325 324 325 327 326 326 322 320 316 317 316
284 285 293 296 296 296 292 288 294 287 289 286 289 293 300 303 304 306 307 309 310 313 317 318 318 321 323 321 317 319 323 326 325 323 322 324 326 325 323 322 321 319 319 318
291 284 293 295 297 297 295 297 287 289 279 279 286 289 293 297 299 303 304 307 309 313 316 318 316 320 323 323 318 320 324 324 323 323 322 324 323 324 324 324 321 320 319 318
292 291 289 294 292 291 292 290 291 291 289 283 284 289 301 298 299 300 304 307 309 311 313 316 318 319 322 321 318 318 321 321 320 321 321 323 321 322 322 322 321 320 320 318
295 291 286 288 295 297 295 292 292 286 284 288 285 288 302 302 299 299 302 306 308 306 306 313 314 317 317 316 317 317 318 318 321 320 320 321 320 322 320 321 321 320 320 321
295 290 284 285 290 294 291 292 292 290 290 286 283 289 302 300 298 301 302 305 305 302 302 303 312 313 314 315 315 316 317 318 321 319 320 320 319 322 322 323 324 325 323 321
294 290 286 283 286 291 287 289 291 290 286 286 287 289 292 295 297 301 303 304 302 298 297 299 299 308 313 314 315 315 317 318 318 319 319 320 321 320 321 322 322 323 324 323
294 286 288 288 289 288 287 287 288 288 288 284 287 287 292 296 299 300 303 301 299 294 293 294 294 297 301 312 314 316 318 320 321 321 318 319 320 321 321 321 320 320 320 321
292 285 287 284 287 287 284 286 288 288 288 288 289 289 296 299 300 299 295 295 293 292 290 291 292 293 295 297 305 306 314 319 320 318 317 320 321 321 322 321 322 321 319 319
288 287 284 280 284 284 281 285 287 288 290 290 287 292 296 295 294 293 293 290 290 289 288 287 289 290 291 293 296 298 300 302 302 302 302 304 307 307 308 315 318 319 320 322
287 286 286 282 283 273 288 293 292 290 291 290 290 292 293 293 290 288 288 289 288 288 286 286 286 289 289 290 291 293 293 294 294 294 295 297 298 298 300 301 302 299 299 297
292 288 284 281 280 282 287 290 290 288 287 287 286 288 289 290 287 284 287 287 286 286 286 285 285 286 288 288 289 289 288 288 288 289 290 291 293 294 294 293 293 293 291 289
290 290 286 283 274 273 286 291 296 296 284 286 287 284 282 290 283 279 284 285 284 284 284 284 284 284 286 287 288 286 286 286 286 287 288 289 290 290 290 289 289 288 288 286
284 283 281 282 280 284 288 291 295 284 282 287 286 283 280 278 280 282 283 283 283 283 283 284 283 282 283 286 286 285 285 284 285 286 287 288 289 288 288 288 288 287 286 285
283 282 283 282 280 277 286 291 285 285 287 287 285 283 282 281 281 281 281 281 281 281 282 282 281 281 282 284 285 283 282 284 285 285 286 287 288 288 289 288 288 287 286 285
283 282 282 281 279 284 285 284 286 286 284 285 285 284 283 280 280 280 280 281 281 281 282 282 281 280 281 282 283 282 283 286 285 284 284 286 287 287 287 287 287 287 287 286
284 286 285 284 283 282 284 285 285 285 283 284 284 283 281 279 279 278 279 279 279 280 280 282 281 280 280 281 282 283 285 285 284 282 284 284 283 283 285 285 284 285 285 285
282 283 281 282 284 284 282 282 283 283 283 281 281 281 280 279 278 278 278 278 278 278 279 279 279 279 279 280 280 281 283 284 283 283 282 282 283 282 281 281 282 282 282 283
282 280 280 280 283 282 280 281 282 279 279 280 279 278 279 279 278 278 277 277 277 277 278 278 278 278 278 279 279 280 281 283 283 281 281 281 281 281 281 279 277 279 280 280

GFSCGP_sfc_thetae_096.txt.gz
Theta_e
299 292 287 290 292 292 292 291 290 294 296 295 294 294 297 301 302 300 302 303 304 306 309 311 315 319 318 320 320 326 336 342 340 338 335 334 332 334 334 337 337 336 334 333
293 290 295 295 293 293 292 290 290 293 296 294 292 292 295 297 298 300 300 301 303 305 307 309 311 315 319 318 320 324 333 341 338 337 336 334 332 333 333 332 333 333 332 332
288 292 296 294 292 290 291 290 290 289 293 294 292 290 293 298 300 301 302 304 305 306 307 310 312 314 316 319 322 324 329 341 339 337 335 334 334 334 332 330 329 330 331 331
291 294 291 291 291 292 287 294 293 291 289 284 292 283 291 297 299 300 301 303 306 312 314 315 315 315 316 319 323 323 326 330 340 336 333 333 331 327 328 328 329 329 330 330
288 290 290 288 291 294 291 295 292 292 289 288 288 285 290 296 295 299 304 309 313 315 316 316 316 317 316 317 323 325 326 328 337 335 335 333 331 329 328 328 328 327 328 329
290 294 293 292 293 295 297 293 292 292 289 282 287 287 288 292 296 301 307 309 312 314 316 317 318 318 316 317 322 326 327 330 335 335 335 334 329 329 327 326 326 326 326 326
288 290 294 295 288 294 294 290 282 280 281 280 290 287 290 296 303 305 306 308 311 314 315 317 316 317 316 316 322 327 327 328 333 332 334 334 331 331 329 326 326 326 324 323
282 281 290 295 292 290 291 290 284 277 279 283 290 284 291 300 306 307 308 309 311 311 313 314 315 320 320 320 327 327 327 327 332 331 333 332 329 329 328 326 327 325 322 323
281 283 293 294 295 293 291 287 294 287 287 283 288 291 299 302 303 305 305 307 308 309 309 310 313 317 322 326 327 327 326 327 331 330 329 328 329 327 326 326 325 323 321 321
285 279 291 293 295 294 293 295 286 288 280 279 285 287 289 295 299 300 301 304 306 307 307 306 309 310 320 323 323 324 327 326 328 327 327 326 325 326 326 325 322 320 319 319
287 284 285 292 288 288 291 289 290 290 288 280 281 287 298 295 296 298 302 305 305 304 303 302 302 306 309 322 320 321 324 324 324 324 324 323 323 324 324 323 321 319 318 318
288 287 281 287 294 296 293 291 291 285 284 288 287 286 298 299 299 302 303 304 304 303 301 299 298 299 300 306 319 319 321 321 322 323 322 322 322 323 324 322 320 319 317 318
288 284 280 283 289 294 290 291 292 292 291 286 283 286 297 297 300 302 300 301 302 300 297 296 295 295 296 298 304 318 318 319 321 321 321 321 321 321 322 322 320 318 317 317
289 283 280 278 285 291 288 290 292 291 286 286 286 287 292 295 296 298 298 299 299 298 295 292 292 292 293 294 296 300 317 319 320 319 320 320 320 320 320 321 321 319 317 316
288 282 284 285 286 292 291 290 290 288 289 285 287 288 291 294 294 294 295 295 294 292 291 290 289 290 290 291 292 296 300 318 320 319 318 319 321 321 322 322 321 321 319 318
289 285 286 284 290 291 287 288 290 290 290 289 290 289 293 294 291 289 289 288 287 286 286 287 287 287 288 288 290 292 294 300 318 314 316 319 320 321 321 321 322 321 321 320
287 285 286 281 287 287 282 287 288 290 290 289 284 287 290 289 284 283 283 284 283 283 284 284 285 285 286 287 287 289 291 295 300 302 303 306 308 308 306 307 306 304 306 303
287 286 287 282 285 277 287 293 293 288 287 287 287 287 287 284 282 282 283 282 281 282 282 282 283 284 285 286 287 288 289 290 292 293 295 298 298 297 297 296 295 294 294 294
292 290 285 282 282 284 287 289 289 288 283 286 285 285 286 286 285 280 283 283 282 282 282 282 283 284 285 285 286 286 286 286 287 288 289 291 293 292 290 289 289 289 288 287
291 292 288 285 279 277 282 287 293 293 278 285 284 282 283 284 279 278 283 283 283 282 282 282 282 283 283 284 285 284 284 284 285 286 287 288 288 288 287 287 286 286 286 284
286 287 284 283 282 281 283 288 293 281 278 285 284 282 280 278 280 282 283 283 284 283 282 282 281 281 281 284 284 283 282 282 284 285 285 285 287 287 287 287 286 286 285 284
281 281 281 284 280 276 284 287 280 283 286 286 283 282 281 281 281 282 282 281 281 281 281 281 280 280 281 282 284 282 282 283 283 283 283 283 284 284 286 287 286 286 286 285
280 283 281 280 279 284 284 283 285 285 283 283 283 283 282 280 279 280 280 280 280 280 280 281 279 279 280 281 282 282 283 284 283 281 280 280 281 282 282 281 282 284 285 284
286 288 284 283 282 282 283 285 284 283 282 283 283 282 281 279 280 279 279 279 279 280 280 280 280 278 279 280 281 282 284 284 284 281 280 279 278 278 279 280 279 279 281 280
283 286 284 282 283 282 281 282 283 283 283 282 282 282 281 280 279 279 279 279 279 280 280 280 279 279 278 280 281 281 283 284 282 282 282 280 279 277 277 278 278 278 279 280
283 279 280 278 283 281 279 282 282 281 280 282 281 280 281 281 279 279 278 278 278 278 279 278 278 278 278 279 279 280 283 282 282 281 281 281 282 279 277 276 275 279 280 280

GFSCGP_sfc_thetae_099.txt.gz
Theta_e
289 287 285 284 286 287 287 286 285 288 292 291 290 288 292 295 296 295 296 295 296 301 304 305 306 308 309 310 312 324 339 338 339 336 333 332 332 334 335 335 332 335 336 334
285 282 289 293 291 288 287 284 284 288 292 291 289 287 289 292 292 295 294 295 296 297 300 302 305 303 308 308 310 324 339 338 338 337 335 333 333 333 333 334 334 334 333 333
285 287 292 291 290 289 288 285 285 286 290 290 288 286 288 293 295 297 299 298 299 298 298 301 303 303 303 309 310 329 338 338 337 335 333 330 329 331 330 330 331 331 332 332
287 292 290 289 287 288 283 291 289 287 287 281 287 279 286 290 293 295 297 300 300 299 300 306 309 309 308 308 310 329 338 336 335 334 332 329 328 326 329 330 330 330 331 330
283 285 286 285 287 290 287 291 290 289 287 283 284 280 285 291 291 294 299 298 300 301 308 311 312 312 312 309 311 323 336 335 334 333 331 329 327 327 329 328 327 328 328 329
285 290 289 289 291 290 291 289 290 289 286 278 284 283 283 288 292 296 303 307 309 310 310 312 314 314 316 316 310 314 330 335 333 331 329 328 327 326 325 324 324 326 326 327
285 286 290 292 287 290 289 286 278 277 278 277 287 284 285 293 296 300 304 304 306 307 308 308 309 310 312 313 311 316 321 332 331 329 329 329 328 327 323 322 323 322 323 324
278 276 286 291 287 286 286 286 279 274 275 279 287 281 287 295 299 304 306 305 305 305 305 304 306 308 309 316 315 317 325 329 329 329 328 328 329 329 327 324 324 323 323 323
278 278 287 288 291 292 287 283 288 283 286 281 285 290 297 299 301 301 303 302 301 301 301 301 302 304 304 316 318 317 320 324 327 326 326 327 329 327 325 325 324 321 319 321
284 276 285 288 292 294 291 293 283 284 277 276 284 286 285 290 293 298 299 298 298 298 297 297 298 301 302 304 315 317 319 320 324 325 326 326 324 325 324 323 319 317 317 319
284 282 281 287 287 286 287 286 287 288 285 280 279 283 289 291 297 298 297 296 295 294 294 294 295 298 299 301 302 309 318 318 320 325 323 323 322 323 323 321 318 318 318 317
286 283 278 281 289 293 292 288 289 280 281 285 284 282 294 296 298 297 297 297 295 293 292 292 292 293 295 295 297 299 306 319 320 322 322 321 322 322 322 320 317 318 317 317
286 281 273 278 287 291 288 290 291 291 288 284 281 282 295 297 293 294 292 293 291 291 290 289 289 290 291 292 294 295 298 302 320 320 320 320 321 321 320 319 318 318 317 317
288 283 278 274 281 285 283 287 292 290 283 285 285 284 288 289 287 288 288 289 288 288 287 287 286 287 288 290 291 293 295 298 306 320 319 319 319 320 320 319 318 317 317 316
286 280 282 282 284 285 284 286 289 288 287 284 283 281 285 284 284 284 286 286 285 285 284 285 285 285 286 287 289 291 292 295 299 317 319 319 319 320 319 319 318 318 317 316
288 281 285 283 288 288 286 289 287 286 286 285 285 282 288 286 284 283 282 282 282 282 283 283 283 284 285 285 287 289 290 292 295 300 310 316 318 320 319 320 319 318 317 316
286 284 283 280 286 286 282 285 284 283 283 284 279 281 286 281 280 280 280 280 280 281 281 281 282 283 284 285 286 287 288 290 290 291 295 301 303 303 304 304 302 301 299 298
286 285 285 280 283 275 283 288 286 282 282 283 282 282 283 280 280 281 281 280 279 280 280 280 281 282 284 285 285 287 287 287 287 288 289 292 294 294 294 294 293 292 291 290
291 287 283 280 280 282 282 283 282 284 279 282 280 281 284 283 284 279 282 281 280 280 281 281 281 282 283 284 285 285 285 286 285 284 286 288 289 288 288 287 287 288 287 286
291 290 284 282 277 274 279 282 287 287 274 282 281 280 279 282 273 275 281 282 280 280 280 280 280 281 281 284 284 282 281 282 282 284 284 286 287 287 286 286 285 285 285 284
282 282 279 279 277 278 280 283 287 271 275 282 281 280 278 275 277 280 281 280 280 280 279 280 279 279 280 283 283 281 281 279 281 282 284 284 284 286 287 286 286 285 284 284
278 278 276 278 275 272 282 282 277 282 283 282 281 280 277 277 278 278 279 279 279 279 279 279 278 278 280 281 283 281 281 282 281 280 280 280 281 282 284 284 284 285 284 283
278 283 278 278 276 282 282 281 282 282 281 281 281 280 278 276 276 277 278 279 278 279 279 280 278 277 279 281 281 280 282 282 280 279 278 278 279 279 280 280 282 281 282 281
282 285 279 280 279 279 282 282 282 281 280 282 281 280 279 277 278 277 278 278 278 278 277 278 278 276 277 278 280 281 282 283 282 279 278 278 277 277 278 279 279 279 279 278
280 282 281 279 279 280 280 281 281 281 281 280 281 280 280 279 277 277 276 276 277 277 277 277 276 276 276 278 278 280 281 282 281 281 281 278 277 276 276 278 278 278 279 279
282 278 277 274 280 278 278 280 282 280 280 281 280 279 280 279 277 277 276 277 276 276 276 275 275 276 275 276 277 279 281 281 280 279 280 280 279 277 276 275 276 280 280 281

GFSCGP_sfc_thetae_102.txt.gz
Theta_e
287 281 279 285 285 286 285 282 281 284 289 288 287 287 291 295 291 291 294 293 294 296 300 302 303 304 305 307 308 320 334 337 339 337 335 332 333 333 332 333 334 334 332 331
284 280 285 289 289 287 285 282 282 286 289 287 286 286 291 290 291 292 291 291 292 293 296 298 299 300 302 306 307 315 332 336 338 337 337 335 335 332 333 333 334 336 335 333
283 286 291 289 286 285 285 284 284 284 288 289 286 284 288 292 292 294 295 295 295 295 296 297 299 298 298 301 304 314 329 335 338 338 336 330 331 328 327 331 333 333 334 333
285 289 288 285 284 286 281 287 287 285 283 279 285 277 286 289 291 293 295 295 296 297 299 301 308 309 309 306 303 313 326 335 337 337 334 331 330 328 330 331 332 332 332 332
281 283 282 281 283 286 282 289 287 286 283 283 284 280 285 288 288 290 293 301 303 305 308 308 308 310 312 312 312 325 331 335 336 335 333 331 329 329 326 328 329 329 330 330
283 286 284 284 288 289 290 287 287 287 285 277 282 282 282 286 289 291 302 304 304 304 304 305 307 308 309 314 317 319 334 334 334 334 332 330 328 326 326 327 327 327 328 329
283 284 287 289 285 288 287 282 276 273 276 275 285 282 284 291 294 295 299 301 301 302 300 300 301 303 304 306 315 312 333 333 333 332 331 329 327 326 325 325 325 325 325 326
276 275 283 288 284 281 282 284 277 271 273 278 285 279 284 297 301 302 302 300 298 297 297 297 299 301 301 303 305 316 324 331 330 329 328 328 327 326 326 325 323 324 324 323
278 277 286 287 287 289 285 282 287 280 282 279 284 287 294 297 297 297 296 295 294 293 293 293 296 297 298 299 301 304 317 321 327 326 326 325 325 325 325 323 324 324 323 322
283 275 284 286 288 289 289 291 279 281 273 274 281 285 285 288 293 294 291 290 290 290 290 291 293 293 295 297 298 301 305 311 320 323 325 326 325 323 323 323 323 322 320 321
284 280 279 284 285 285 287 285 286 285 283 277 277 280 286 287 290 289 290 289 288 288 287 288 290 291 293 294 295 297 300 303 309 319 320 322 321 322 321 322 320 319 317 316
285 281 276 279 286 289 290 287 286 278 280 284 282 281 289 287 287 288 287 288 288 287 286 286 287 289 289 290 292 295 298 297 302 314 318 320 322 322 320 319 319 318 315 316
286 278 273 275 285 289 287 288 289 289 286 283 280 280 289 287 285 286 285 285 285 285 284 284 285 286 287 288 289 291 294 295 299 304 318 320 320 320 320 319 318 316 317 317
289 281 277 274 279 284 282 285 287 288 282 281 279 281 282 282 281 283 283 284 284 284 283 283 283 284 285 287 288 289 291 294 296 302 319 319 319 320 319 319 317 316 316 317
286 281 282 281 282 283 282 285 286 285 285 281 280 279 280 280 280 281 282 282 282 281 281 282 282 283 284 285 286 288 289 292 295 296 300 308 319 320 319 318 317 317 317 317
286 280 283 280 284 284 283 285 283 283 284 283 281 279 282 282 281 279 280 280 279 280 280 281 281 282 283 284 285 287 288 289 291 292 292 296 303 317 317 318 318 315 310 312
282 282 282 280 285 285 278 281 280 280 281 281 277 281 281 278 278 277 278 278 278 278 279 279 280 281 283 283 284 284 286 288 288 288 289 290 293 297 299 300 298 297 296 296
283 283 285 281 283 272 280 285 283 280 280 281 280 282 279 278 278 279 279 277 277 278 278 278 279 280 283 283 283 284 284 285 286 286 286 288 289 289 291 291 290 289 289 289
289 286 282 280 278 280 281 281 279 281 276 280 279 280 281 281 280 277 279 279 278 278 279 279 280 280 282 283 283 282 281 281 281 283 284 285 287 286 286 286 286 286 286 285
288 289 284 282 276 273 277 280 284 285 271 281 280 277 277 281 272 273 278 279 278 278 279 278 279 280 280 282 283 281 279 279 279 280 282 284 285 285 285 285 284 284 284 283
280 281 277 279 276 277 278 281 286 272 273 280 279 277 275 273 275 277 279 278 279 279 278 278 278 278 279 281 282 279 279 277 279 280 280 280 281 283 284 285 285 284 284 283
278 277 275 277 274 272 280 280 276 279 281 280 278 277 275 275 276 275 276 276 277 277 277 277 276 276 278 280 280 280 279 280 279 279 278 279 279 280 281 282 282 283 282 282
276 280 276 277 274 280 280 279 281 282 280 280 278 277 276 274 274 275 276 277 276 276 276 277 275 275 277 278 279 278 281 282 280 278 277 277 278 279 279 279 279 279 280 280
280 284 277 277 278 279 280 281 281 281 280 280 279 278 277 274 275 274 275 275 275 276 275 276 275 274 274 277 278 279 279 282 281 279 278 277 276 277 278 279 279 279 278 278
279 280 279 276 278 279 279 280 280 280 279 279 279 278 277 276 276 275 275 274 274 274 274 274 274 274 273 275 276 278 279 279 279 279 280 278 277 276 276 278 279 279 280 281
281 277 275 274 278 277 278 280 280 279 279 279 278 277 279 278 277 276 274 274 273 273 273 272 273 273 273 274 274 276 278 279 278 278 278 279 279 277 276 275 275 280 281 281

GFSCGP_sfc_thetae_105.txt.gz
Theta_e
287 281 279 283 286 287 285 283 282 285 288 285 285 285 287 291 291 291 292 292 293 294 298 299 300 300 300 301 303 308 324 336 337 337 335 333 332 334 333 335 335 333 334 332
283 279 284 286 286 286 285 282 281 285 287 286 286 285 289 290 290 291 292 293 292 292 294 297 297 297 297 298 302 306 322 333 336 337 337 335 334 334 334 334 334 334 333 332
282 285 290 286 285 283 283 282 282 282 286 286 284 283 286 290 292 293 294 293 293 296 296 295 296 295 297 297 297 304 318 328 335 337 336 329 328 329 330 331 333 334 333 332
281 286 284 282 281 282 278 284 284 283 281 277 282 275 283 288 289 292 293 296 301 301 303 303 307 308 307 309 310 304 311 327 333 336 334 331 330 329 331 332 333 334 334 333
280 281 281 279 281 283 280 284 284 284 281 281 281 278 282 287 286 289 293 300 299 301 301 301 303 305 306 308 312 313 308 323 331 335 335 332 329 330 328 330 330 331 332 331
282 285 282 281 285 286 288 285 284 283 281 275 280 279 280 283 287 290 297 297 297 297 298 299 302 303 304 305 306 313 321 325 332 334 334 331 330 328 327 328 329 329 329 330
281 282 285 288 283 285 284 280 273 270 272 273 282 279 281 292 296 296 295 294 294 294 294 296 297 298 300 300 302 307 320 329 332 333 333 332 330 327 327 327 328 328 327 327
275 273 281 286 283 280 280 280 274 270 271 274 283 278 284 295 296 295 294 292 291 291 291 292 295 296 296 298 299 301 306 311 333 333 332 332 328 327 327 327 328 326 326 328
276 276 284 285 286 284 282 276 283 278 279 275 278 284 292 290 289 289 288 289 288 288 287 288 290 293 294 295 296 299 301 305 310 330 331 329 326 324 324 324 325 326 324 323
281 274 282 284 286 285 285 286 276 279 272 270 278 281 279 282 284 287 286 286 286 286 285 286 288 290 292 294 295 296 300 301 305 317 327 325 324 324 322 322 321 321 320 322
282 279 279 282 280 279 284 283 284 283 281 273 274 276 285 283 284 284 285 285 285 284 284 284 286 288 289 292 293 294 296 298 301 305 316 323 322 321 321 321 319 321 321 321
283 278 275 277 284 286 284 283 286 280 278 282 280 276 287 284 284 284 283 284 284 283 283 284 285 286 287 288 290 292 294 296 299 302 308 320 320 321 320 319 319 319 318 318
284 278 271 275 284 287 285 286 286 288 286 280 277 276 286 284 282 283 282 282 282 282 282 283 283 284 285 286 288 289 291 294 297 300 307 319 319 319 318 318 318 317 317 316
287 278 276 272 277 282 280 283 285 285 281 279 278 277 279 279 279 280 280 281 281 281 281 281 281 283 284 285 286 287 289 291 294 296 298 302 313 319 318 318 317 317 317 314
286 279 281 281 282 282 282 283 284 283 285 278 278 276 277 278 277 278 279 280 279 279 279 280 280 282 283 283 284 285 287 289 291 293 293 295 302 317 319 317 317 316 316 317
286 277 281 279 283 283 279 280 280 282 282 281 279 275 280 279 279 277 277 277 277 277 278 279 280 281 282 282 282 283 284 286 288 288 289 292 293 296 298 309 314 310 306 306
282 279 280 278 283 280 272 278 278 278 279 280 277 277 278 276 276 276 276 276 276 277 277 278 279 280 281 282 282 281 282 284 285 285 287 288 289 289 290 292 294 294 295 294
282 281 281 280 281 270 279 283 281 278 278 279 279 278 277 276 276 277 278 276 276 277 277 278 278 279 281 282 281 282 282 282 282 282 283 286 287 286 287 286 286 287 288 288
287 283 282 279 276 278 281 279 278 279 275 279 277 279 279 278 280 275 278 278 277 277 278 278 279 279 281 282 281 280 279 280 280 280 281 282 285 285 285 284 284 284 285 285
287 286 283 280 276 272 276 278 283 283 270 279 277 276 276 280 272 271 277 278 277 277 278 277 278 279 279 280 282 279 277 277 277 279 280 281 282 283 284 283 283 284 284 283
280 281 277 278 276 276 277 279 285 272 272 278 277 275 274 271 273 275 277 276 277 277 276 276 277 277 277 280 281 279 278 277 277 278 279 280 281 281 281 282 283 283 283 283
277 275 274 277 274 272 278 279 276 278 280 278 277 275 272 272 273 276 276 275 275 274 274 275 274 275 277 278 278 277 278 280 278 277 277 278 279 280 280 280 280 281 281 281
275 278 275 275 273 278 279 278 281 281 279 277 276 276 275 273 273 274 274 274 274 273 273 274 273 273 275 276 278 276 277 280 278 276 275 276 277 279 279 279 280 280 280 280
279 282 276 275 277 278 278 279 280 279 278 279 278 277 276 273 273 273 273 272 272 271 271 272 273 272 272 274 275 276 278 277 278 278 277 276 276 276 278 279 279 279 279 279
278 279 277 275 277 278 278 278 278 279 279 278 278 277 276 275 273 272 269 270 269 269 271 271 272 272 272 273 273 275 277 278 277 278 278 277 277 276 276 276 278 278 279 281
281 277 272 273 277 277 275 279 280 278 277 278 277 277 277 276 273 273 272 272 271 271 272 271 272 272 272 272 273 274 276 278 277 277 277 276 276 276 275 275 275 279 279 280

GFSCGP_sfc_thetae_108.txt.gz
Theta_e
285 280 279 283 284 284 281 281 280 283 287 284 283 284 287 290 289 289 290 291 291 292 296 296 296 296 297 297 299 301 303 318 334 335 333 333 331 332 333 334 334 335 335 334
282 279 284 284 284 284 282 280 279 283 286 284 283 283 286 288 288 289 291 291 292 292 299 305 303 295 294 295 297 299 301 305 331 333 335 334 334 334 335 334 334 334 334 334
281 284 287 285 282 281 281 280 280 281 282 283 281 280 282 287 290 291 292 294 295 298 299 301 303 304 306 305 306 304 300 306 326 332 335 333 333 332 331 331 332 333 334 333
282 285 284 281 280 281 276 283 282 280 278 274 282 273 281 284 286 289 291 293 297 298 299 299 300 301 303 303 305 307 312 306 325 333 334 332 330 328 330 331 332 333 333 333
281 281 281 279 281 282 279 283 281 280 279 278 278 274 278 284 283 288 294 296 294 295 296 296 298 299 301 303 302 303 307 312 317 331 332 332 330 330 330 332 331 331 332 333
282 285 283 282 284 284 286 283 282 281 278 272 277 275 276 280 288 290 294 294 294 293 293 294 295 297 297 299 300 301 307 314 314 330 332 331 329 328 327 330 329 329 332 331
281 282 283 286 281 284 282 278 271 269 271 271 278 276 278 287 289 288 288 289 290 290 290 290 290 291 294 296 297 299 303 309 322 328 331 331 329 328 327 328 329 328 328 329
275 273 280 285 282 278 278 278 273 268 270 272 279 274 283 289 290 290 289 289 288 287 287 287 288 290 291 293 295 296 300 303 308 326 331 332 329 327 327 328 329 329 327 329
275 275 283 284 284 283 280 276 281 276 277 273 276 280 287 286 286 287 286 286 285 284 285 286 287 288 289 291 294 296 297 300 304 308 328 330 329 327 326 327 327 329 327 325
281 274 281 283 284 284 282 285 275 278 268 269 274 277 276 280 282 284 283 283 283 283 284 284 285 286 287 289 292 296 296 298 301 305 310 327 326 325 324 324 324 325 325 324
281 279 277 281 279 277 281 280 280 280 278 272 269 273 283 280 281 281 282 283 282 282 282 282 284 285 285 288 290 291 294 295 298 301 306 320 324 324 324 323 323 323 321 321
281 277 275 277 283 285 282 280 281 274 277 280 277 274 284 282 282 281 281 282 282 282 281 282 283 284 284 286 288 288 292 294 296 300 306 320 321 322 321 321 320 320 320 320
283 277 270 275 281 286 283 285 286 284 282 280 272 272 283 281 280 280 279 280 280 281 280 281 281 282 283 284 285 286 288 290 295 297 300 304 309 320 319 319 319 319 319 319
285 278 274 271 275 280 278 281 284 282 277 277 274 276 277 277 276 277 278 279 279 279 279 279 280 281 282 283 283 285 285 288 291 293 295 296 298 308 318 318 318 318 318 316
282 277 278 279 281 281 281 280 279 282 283 278 277 275 275 276 276 276 278 278 278 278 278 278 279 280 281 281 282 282 284 285 288 290 290 291 293 296 300 310 316 316 315 316
287 277 279 276 281 282 277 279 278 278 280 278 276 274 278 278 278 276 276 276 276 277 277 278 278 279 280 280 281 281 282 283 285 286 288 289 290 290 291 292 294 295 296 297
282 279 278 276 280 279 274 276 277 277 278 279 276 276 278 275 275 275 275 276 275 276 276 277 277 279 280 280 280 279 281 283 283 283 284 286 287 286 287 288 288 288 288 289
282 280 280 277 279 270 277 283 280 276 277 278 278 277 277 275 275 276 277 276 275 276 276 276 277 278 279 281 280 280 280 280 281 281 282 283 284 285 285 285 285 285 286 285
285 282 278 278 275 276 279 278 277 278 274 277 277 278 279 278 279 275 277 277 276 275 276 276 277 278 279 279 281 279 278 278 279 279 280 282 282 282 283 283 284 284 284 284
287 286 281 280 275 271 275 278 281 282 270 278 277 276 276 279 273 271 276 276 276 276 276 275 276 277 277 278 280 279 277 277 276 278 279 281 282 282 281 282 283 284 284 283
280 281 277 278 275 275 276 278 283 273 271 277 276 274 274 271 271 274 276 275 275 275 274 274 274 275 275 278 279 277 278 276 277 277 278 279 280 281 282 282 282 282 283 283
276 275 274 276 275 272 278 280 276 276 278 277 275 273 272 271 273 273 274 273 272 271 272 272 272 273 275 276 277 276 276 279 277 277 276 277 279 279 280 281 281 282 282 282
275 276 274 274 272 277 278 278 280 280 277 276 275 275 271 268 270 272 272 272 270 269 269 271 270 271 273 274 275 275 276 278 279 277 275 275 276 276 278 278 279 279 280 280
279 281 275 274 276 276 277 278 279 278 276 277 276 274 274 271 270 269 268 269 269 269 270 271 271 270 270 272 273 275 277 278 278 277 276 275 275 275 276 277 278 278 278 277
277 278 277 274 276 277 277 277 278 278 277 276 276 275 273 272 270 269 267 267 268 268 269 271 270 270 270 271 271 273 275 276 276 276 274 273 273 273 273 275 277 277 278 279
281 277 271 268 276 275 276 275 278 276 275 276 276 275 275 274 272 271 270 270 270 270 270 270 270 270 270 271 271 272 275 275 274 274 273 272 271 271 271 270 271 277 278 279

GFSCGP_sfc_thetae_114.txt.gz
Theta_e
297 292 290 293 294 293 291 289 288 291 294 292 291 292 294 296 297 296 297 299 299 303 308 311 312 314 314 316 316 318 319 322 316 317 328 331 336 339 342 343 344 345 347 347
293 289 294 295 293 291 290 288 288 291 292 291 290 290 293 295 295 296 296 300 303 304 304 305 307 309 310 311 313 314 315 317 320 319 317 330 334 336 338 343 345 345 344 345
290 292 293 292 290 288 289 288 288 287 289 291 290 288 292 293 295 297 301 301 301 300 300 301 302 304 305 306 308 309 311 313 315 318 322 319 331 334 335 339 342 344 343 343
290 293 290 290 288 289 285 290 287 286 285 283 290 280 289 293 292 295 297 299 298 298 298 298 298 299 300 301 304 306 308 309 312 316 318 320 320 326 333 335 338 341 344 342
288 288 288 287 288 289 286 289 288 287 285 285 286 283 288 292 289 292 294 295 297 297 297 296 296 296 299 300 300 301 304 305 309 313 316 319 319 330 332 336 337 339 339 338
290 292 290 290 289 289 290 288 288 288 285 279 285 284 285 289 288 289 291 291 294 294 295 295 296 296 297 298 298 298 299 301 303 306 312 317 322 325 330 332 335 337 337 335
287 288 290 290 286 289 288 285 280 278 279 278 284 282 285 290 289 289 288 290 292 292 292 292 292 292 293 293 293 294 294 295 297 301 305 311 320 325 333 332 335 335 333 332
282 280 286 289 287 285 286 285 279 273 276 279 285 279 287 291 292 292 291 291 290 290 289 288 289 290 290 291 291 292 291 291 294 298 302 307 317 327 332 334 334 336 334 333
281 280 288 288 289 287 284 281 286 280 281 278 281 285 289 290 289 289 288 288 287 287 287 287 287 288 289 287 288 288 288 290 292 296 301 305 316 329 333 335 338 337 336 333
283 278 285 287 288 289 285 288 280 281 273 273 281 282 285 282 283 285 284 284 285 285 285 285 285 285 287 286 286 288 287 288 291 295 300 304 313 322 335 333 333 334 338 337
286 282 280 284 283 283 284 282 283 284 282 277 277 281 283 281 281 281 284 285 285 283 283 284 284 284 286 285 284 285 285 287 290 295 300 303 310 330 334 332 333 336 337 336
286 284 279 281 287 289 287 285 285 279 279 282 281 281 284 282 282 282 283 284 284 284 284 283 283 283 283 283 283 283 284 286 289 293 298 299 302 309 329 330 332 334 332 333
288 282 277 279 284 288 285 286 286 286 284 280 278 280 284 283 282 282 281 283 284 283 283 282 282 280 281 282 282 282 283 285 288 291 295 297 297 300 304 319 324 324 324 325
290 283 279 278 280 283 281 284 286 283 280 281 282 279 279 279 279 280 281 282 283 282 282 282 281 280 281 282 281 280 282 284 286 289 289 292 293 295 297 300 303 304 310 316
288 280 282 282 284 284 283 283 283 280 281 278 280 278 277 278 278 279 280 281 281 280 280 280 280 280 281 281 281 281 281 283 284 286 287 289 291 291 292 293 295 297 297 298
288 280 282 280 285 284 281 281 283 280 279 279 279 276 280 281 281 280 279 279 279 279 279 279 280 280 281 282 282 281 281 282 283 283 284 286 287 288 289 288 290 289 291 290
285 282 281 278 282 281 277 278 279 279 281 281 280 279 281 279 278 278 278 279 278 278 278 278 280 280 281 282 283 282 283 282 281 282 282 283 284 285 285 286 285 285 286 287
284 283 284 280 281 275 279 283 283 280 280 282 281 281 281 279 278 279 279 278 278 278 278 278 280 280 280 282 283 285 284 283 281 281 282 283 283 283 284 284 284 284 284 284
287 285 282 279 279 279 280 281 281 280 277 281 281 282 281 281 283 278 279 279 278 277 277 278 279 279 280 281 282 283 283 283 281 281 281 283 284 283 283 283 284 284 283 283
288 286 283 282 277 275 281 282 285 285 278 281 282 283 282 282 281 278 278 279 278 277 277 277 278 279 278 280 282 281 280 280 280 280 281 283 284 284 283 284 284 284 285 284
283 284 280 281 281 280 281 282 285 277 278 281 283 283 284 280 280 278 278 277 278 277 276 277 276 275 276 278 279 278 278 277 279 281 281 282 283 283 284 284 284 284 284 284
281 281 281 282 280 276 282 283 280 281 282 282 282 281 278 278 277 277 276 276 276 276 276 276 275 275 276 277 278 276 276 278 279 280 280 280 281 282 283 283 284 283 284 284
280 282 283 279 279 280 282 282 285 285 282 282 281 280 279 277 277 277 277 277 277 276 277 277 275 275 276 277 277 276 277 278 278 278 279 280 281 281 282 281 281 281 282 282
282 283 280 280 279 279 281 283 284 284 282 282 281 280 279 276 276 276 277 277 277 277 276 278 277 276 275 277 278 278 278 279 279 278 278 279 279 280 280 281 280 278 278 278
284 283 280 277 279 280 280 281 282 281 281 280 280 280 278 277 276 276 276 276 277 277 277 277 277 276 276 277 278 279 279 279 279 278 279 279 279 279 279 278 276 277 277 277
285 282 281 282 282 283 280 281 282 280 279 280 279 278 278 278 276 277 277 277 277 276 277 277 277 277 277 277 277 279 279 279 278 278 278 278 279 279 278 278 278 276 276 275

GFSCGP_sfc_thetae_117.txt.gz
Theta_e
299 294 292 296 298 297 295 293 291 294 297 295 294 294 297 299 300 299 300 301 301 304 310 310 311 312 313 314 314 315 317 320 321 322 317 323 335 339 343 344 347 345 348 351
296 292 297 298 297 295 293 291 291 294 296 295 293 293 296 298 298 300 300 300 304 305 305 306 307 308 309 310 311 312 313 315 317 318 321 320 324 333 340 344 345 348 348 349
293 296 297 294 293 292 292 290 290 290 293 294 292 290 294 299 298 299 302 303 302 302 302 303 304 304 306 306 308 308 309 311 313 316 317 319 324 323 334 339 340 344 347 349
293 297 294 293 291 292 288 293 292 290 288 285 293 284 292 296 297 298 300 301 301 301 301 301 301 302 303 303 306 307 307 307 309 313 313 315 316 318 326 336 339 340 345 347
291 292 291 290 291 293 290 294 290 290 288 287 287 284 290 295 293 296 298 298 299 300 299 298 298 299 300 301 302 303 303 304 307 309 310 311 315 319 323 325 338 339 343 344
293 296 293 293 294 293 293 290 290 289 286 280 286 286 287 292 292 293 294 296 296 297 297 296 297 296 296 298 299 299 300 301 303 304 306 306 310 315 318 324 329 334 338 341
291 292 294 293 290 293 291 287 281 280 280 280 289 287 288 293 293 292 292 293 295 295 294 293 292 292 292 293 294 294 295 296 298 300 302 302 305 310 315 319 325 333 335 337
284 283 291 293 290 288 289 288 282 275 277 281 288 283 289 294 295 294 293 293 292 291 291 289 289 289 289 289 290 290 290 292 294 295 297 299 301 305 312 319 325 326 335 338
284 284 291 291 292 290 287 284 289 282 283 279 283 287 292 293 292 291 290 290 288 288 288 287 288 287 287 287 287 288 287 289 291 291 293 294 299 303 308 318 328 330 335 339
287 281 289 289 291 291 288 290 281 282 274 274 281 284 283 282 284 287 286 287 287 287 286 286 285 285 286 286 287 288 286 287 288 290 292 295 298 303 308 320 328 333 336 339
288 285 285 286 285 284 286 284 284 285 283 278 278 281 284 281 283 283 286 287 287 286 285 285 285 285 284 286 285 285 285 285 287 289 292 294 300 303 309 322 331 335 336 335
289 286 281 283 289 290 289 287 286 280 279 283 282 282 285 284 285 285 284 286 287 286 285 286 285 284 284 284 284 283 284 284 286 287 291 296 297 301 304 316 330 334 333 334
289 283 278 281 285 290 287 288 287 287 286 281 278 281 286 285 284 284 283 285 285 285 284 284 284 284 283 284 284 283 283 283 285 287 289 293 293 295 295 299 303 307 324 325
290 285 282 278 280 286 283 286 288 286 281 282 283 282 281 281 281 282 282 283 283 283 283 283 283 283 285 284 284 283 283 283 284 286 287 289 290 291 293 294 294 298 300 299
288 281 284 284 285 286 285 285 286 284 285 281 283 280 279 280 281 281 282 282 281 281 281 281 282 282 284 284 285 285 283 283 284 284 285 286 288 289 289 290 290 291 292 292
290 281 284 280 286 286 284 286 286 285 284 281 281 278 282 283 283 281 280 280 279 279 279 280 281 282 282 283 285 286 284 284 284 284 284 285 286 286 287 286 287 288 288 287
287 284 282 280 285 283 280 282 283 283 282 283 280 280 283 281 280 279 279 280 278 279 279 279 280 281 281 283 285 286 286 285 283 283 284 284 284 284 284 285 285 284 284 285
287 284 285 281 283 275 280 286 285 283 283 285 283 283 283 281 281 280 280 279 278 278 278 278 280 280 281 284 283 285 286 285 283 283 283 284 284 284 284 284 284 283 283 283
290 286 283 280 281 281 280 283 283 281 280 286 284 283 283 283 283 279 280 280 278 278 278 278 279 280 280 281 283 282 283 283 282 281 282 283 284 283 283 284 284 284 284 284
289 288 283 283 278 276 283 287 289 288 279 286 286 284 284 284 282 279 280 280 279 278 278 277 278 279 278 279 281 279 279 280 280 281 282 284 284 283 283 284 284 284 285 284
283 283 281 282 281 281 286 286 288 279 279 286 287 287 286 283 280 280 280 279 280 278 277 278 277 276 277 279 280 278 278 277 280 282 283 282 283 283 283 283 284 285 285 284
284 283 283 284 281 278 285 286 281 284 287 287 286 284 281 280 279 278 278 278 278 278 278 278 276 276 278 279 279 277 277 279 280 281 281 282 281 282 282 280 282 283 282 283
282 286 283 283 281 283 285 286 288 288 286 285 284 283 281 279 279 279 279 279 279 278 279 279 278 277 278 280 279 277 279 280 280 281 280 281 282 280 281 280 278 278 280 280
285 287 286 283 281 281 284 286 288 288 285 285 285 283 282 279 279 279 279 279 279 279 279 280 279 278 277 279 280 280 280 281 281 280 281 282 281 282 280 280 280 276 276 276
288 286 283 281 281 282 283 284 285 284 284 283 284 283 281 280 279 279 279 279 279 279 279 279 279 278 278 279 280 281 281 281 282 282 282 282 282 282 282 278 277 277 276 276
288 286 283 283 284 285 282 283 284 283 282 283 282 281 282 281 280 281 280 280 280 279 280 279 279 279 278 279 279 280 280 281 280 280 281 280 281 281 281 280 280 278 277 277

GFSCGP_sfc_thetae_120.txt.gz
Theta_e
298 292 290 294 297 297 295 293 292 295 299 295 295 295 296 299 300 299 300 301 302 303 307 308 308 308 308 308 309 310 311 313 314 314 316 318 318 324 338 341 342 342 342 343
294 291 296 298 298 296 294 292 291 294 296 295 294 293 296 298 298 299 299 301 303 303 304 304 305 306 306 306 306 306 308 309 310 311 313 314 315 318 321 336 341 342 342 343
293 296 300 297 294 292 292 291 291 290 293 294 292 290 293 297 300 301 302 303 302 301 300 300 301 302 302 302 302 303 305 306 307 308 309 312 314 316 317 320 328 340 341 341
294 297 295 294 292 293 288 294 292 291 288 283 292 282 289 294 295 298 300 300 299 299 299 299 298 298 298 299 300 301 301 302 303 306 306 307 308 309 314 317 322 335 340 341
291 293 292 291 291 294 290 294 292 290 287 286 286 283 288 293 292 294 296 297 297 297 297 296 295 295 296 296 296 297 298 297 299 301 303 303 304 307 312 315 318 322 329 337
292 297 295 293 295 294 294 291 290 289 287 280 285 285 285 290 292 292 293 294 294 294 294 294 294 293 292 293 292 293 293 294 295 296 298 299 300 301 304 308 312 316 323 331
291 292 295 296 290 293 291 287 280 279 280 279 289 286 287 291 292 292 291 292 292 292 291 290 289 289 289 289 289 290 290 289 291 292 294 296 297 298 300 302 307 312 316 323
285 284 292 295 291 288 288 287 281 274 276 280 287 281 285 293 293 292 292 291 291 289 289 288 287 287 287 287 287 287 287 287 288 290 291 293 294 296 298 300 304 309 315 320
285 285 293 292 293 291 287 283 289 282 283 279 281 285 291 291 289 289 289 289 288 287 287 286 286 286 286 285 286 286 286 286 287 288 289 291 293 294 296 299 303 306 312 319
289 282 290 291 293 291 288 290 281 283 274 273 280 282 280 282 283 286 286 286 287 287 286 286 286 286 286 286 286 286 286 285 286 287 289 290 293 295 297 299 302 305 309 317
289 286 285 289 287 285 286 285 284 284 281 275 275 280 284 282 283 284 285 286 286 285 285 285 285 286 286 286 286 286 285 285 285 286 289 291 295 297 300 302 305 306 310 315
290 286 281 284 290 291 288 285 285 279 277 281 280 280 285 284 285 285 284 285 285 285 285 285 284 284 284 285 285 285 285 284 285 286 289 291 292 294 295 297 301 308 313 318
289 283 278 279 285 288 284 287 288 287 285 280 277 279 285 285 284 284 283 284 284 284 283 283 283 283 283 284 285 285 284 284 284 285 287 288 289 290 290 292 294 296 297 300
291 285 281 276 281 285 282 286 288 286 281 281 281 279 281 282 282 282 282 283 282 282 281 281 282 282 283 284 285 285 284 284 284 285 285 286 286 288 289 290 289 290 292 291
288 280 283 283 284 284 284 284 285 284 285 281 283 282 280 281 281 281 282 282 280 280 280 280 281 281 282 283 284 285 284 284 284 284 284 284 286 287 287 287 288 288 287 287
289 280 284 279 284 284 282 285 285 286 286 285 283 282 283 283 283 281 280 279 279 279 279 279 280 280 281 282 283 285 284 283 284 283 283 284 285 285 286 285 285 286 286 286
286 284 280 277 285 285 280 285 286 287 287 285 281 282 282 280 279 279 279 279 278 278 278 278 279 279 280 281 282 283 283 283 283 283 283 284 284 284 284 285 284 284 284 285
286 284 282 280 283 274 282 287 287 285 285 286 283 282 283 281 280 280 280 278 277 277 277 277 278 278 279 281 280 282 282 282 282 282 282 282 283 283 284 284 284 284 284 283
291 286 282 279 279 282 282 284 284 281 281 287 284 283 282 281 280 278 280 279 277 277 277 277 278 278 278 279 280 279 279 280 280 280 281 282 281 281 282 282 283 284 284 283
289 289 283 282 278 276 283 287 290 289 278 287 286 283 282 282 278 276 279 279 278 277 277 276 277 278 277 278 280 277 277 278 278 280 279 280 281 279 279 280 281 283 283 283
282 283 280 280 278 282 287 288 290 278 280 288 288 286 285 282 281 280 280 279 279 278 277 277 276 276 277 277 278 276 277 277 279 280 281 279 279 280 278 279 279 280 281 280
282 281 281 282 279 278 288 287 282 285 289 289 286 284 279 279 279 278 278 278 278 278 277 277 275 275 277 277 277 276 276 278 279 280 279 280 278 278 278 276 276 277 277 278
283 287 283 280 281 285 287 287 290 290 288 286 284 282 280 278 277 278 278 278 278 278 278 279 274 274 276 278 277 275 277 278 278 279 279 279 279 278 278 275 274 274 275 274
287 289 286 283 282 283 285 288 289 288 286 286 285 283 281 279 279 278 279 279 278 279 279 279 279 275 274 276 277 278 278 279 278 278 279 280 279 277 277 277 275 273 273 272
289 288 285 281 283 283 284 286 286 285 286 284 284 283 281 280 279 279 279 279 279 279 279 279 278 277 277 278 278 278 279 280 280 280 279 280 280 279 278 276 276 274 275 275
290 287 283 283 285 285 284 285 285 283 283 283 283 282 282 281 280 280 280 280 279 279 279 278 278 277 277 277 277 278 279 279 279 279 279 278 279 279 279 278 278 280 279 278

GFSCGP_sfc_thetae_126.txt.gz
Theta_e
292 286 283 286 287 288 287 285 284 287 291 290 288 285 287 291 291 292 294 293 293 293 294 294 293 292 292 291 291 292 292 293 294 295 294 296 297 300 303 306 309 314 319 321
286 283 290 292 291 289 288 286 285 287 291 289 286 286 286 290 292 292 291 290 290 290 290 291 290 289 289 289 289 290 290 290 291 292 293 294 295 298 300 303 306 309 312 314
284 288 294 292 289 288 288 286 285 285 287 286 284 283 284 291 293 292 290 290 289 288 287 287 287 287 287 287 286 288 288 288 290 291 290 291 292 293 295 298 300 304 306 307
288 293 291 290 289 289 283 289 288 286 282 277 284 275 282 287 287 288 288 286 286 286 286 286 286 286 285 285 286 287 287 287 289 289 288 288 287 287 290 293 297 299 302 304
287 288 287 286 288 290 286 290 287 285 280 279 279 276 280 287 284 285 286 286 285 285 285 284 285 285 285 285 285 285 286 287 287 288 287 287 286 288 289 291 293 295 298 300
289 291 289 288 290 290 290 286 285 283 280 274 280 278 277 282 284 285 286 286 285 285 284 285 285 285 284 285 285 286 286 286 287 286 286 286 285 285 286 288 289 292 295 297
285 287 290 291 285 288 286 281 274 273 273 273 282 278 281 284 286 285 284 284 284 284 283 283 282 282 283 284 285 286 286 286 286 286 286 286 286 286 286 287 289 290 292 294
279 278 286 290 286 284 283 282 276 272 273 274 282 276 279 286 288 288 287 285 284 283 282 282 282 282 283 284 285 286 286 285 285 285 286 287 288 289 289 290 291 292 293 295
280 281 288 289 289 288 284 279 284 279 278 274 277 280 285 286 285 286 285 284 282 281 281 281 281 283 283 283 284 286 285 285 285 285 287 287 289 290 291 292 293 293 295 297
285 278 286 288 289 287 285 287 277 278 273 271 274 276 276 280 283 284 283 281 281 280 280 280 281 282 282 284 284 286 285 284 285 286 287 288 289 290 291 293 294 296 298 299
284 282 281 285 283 281 282 279 281 280 278 272 269 269 277 278 281 280 281 282 280 279 278 279 280 280 281 283 283 284 283 283 284 285 286 287 288 289 290 290 291 292 294 296
285 281 276 280 286 287 284 282 282 275 275 276 275 273 284 282 282 282 282 283 283 281 278 279 279 279 280 280 281 282 282 282 283 285 285 286 288 287 287 288 289 291 290 292
285 279 273 277 280 285 282 285 286 283 279 275 269 271 283 283 281 281 280 281 280 280 279 279 279 279 279 279 279 280 281 281 282 283 283 284 285 286 286 286 287 288 289 289
289 281 277 274 277 281 278 281 282 282 274 276 273 270 281 282 281 281 281 280 278 279 279 278 278 278 278 279 278 279 280 281 280 282 281 281 282 285 285 285 285 285 286 286
283 278 276 279 282 282 280 279 280 276 280 276 274 276 277 281 280 281 279 279 278 278 277 277 276 277 277 278 278 279 280 280 279 280 279 279 281 283 284 284 283 283 283 284
283 276 273 269 282 281 278 280 280 280 280 277 276 278 281 281 280 279 279 278 277 276 276 276 276 276 277 278 278 279 279 279 279 278 277 278 279 280 281 282 282 281 281 281
279 275 271 270 280 281 276 278 278 278 281 281 277 280 280 279 279 278 278 278 276 275 275 275 275 276 276 277 278 277 278 279 277 277 277 276 277 277 279 279 279 279 278 278
279 277 276 274 276 270 278 285 284 282 283 283 280 280 281 281 279 278 279 277 276 275 275 275 275 276 276 277 278 278 279 279 278 277 276 276 275 274 276 277 276 276 276 276
285 279 275 272 274 278 280 283 282 280 280 283 281 281 279 278 278 276 277 277 275 275 275 275 275 276 276 276 277 277 277 277 278 276 276 276 275 274 273 273 275 275 275 274
284 283 277 276 274 271 279 286 288 286 273 284 283 279 278 277 275 274 276 276 275 275 275 274 274 276 274 274 276 273 274 275 275 276 276 276 276 275 273 273 273 274 274 274
280 280 277 277 275 278 285 287 289 272 275 284 282 280 278 276 279 277 277 275 276 274 273 273 271 269 269 271 273 272 272 272 271 273 276 275 275 275 275 274 274 274 274 274
280 278 278 279 275 273 285 285 279 281 284 284 283 282 279 275 275 275 274 274 274 273 271 269 269 268 269 271 270 271 271 270 270 269 269 271 272 274 274 273 274 274 273 273
280 282 277 279 278 281 283 283 285 286 283 283 283 282 277 274 273 274 275 276 275 273 271 271 267 268 268 270 271 271 271 271 271 272 270 265 268 271 271 272 272 272 272 272
285 287 281 280 280 281 283 284 285 284 282 282 282 280 278 275 274 274 276 276 276 275 273 273 272 269 269 268 272 271 273 273 273 273 273 274 271 271 270 272 274 273 272 271
282 284 280 278 278 281 282 281 282 280 280 280 280 280 278 276 275 275 274 275 274 274 275 274 273 273 271 272 271 271 273 275 275 274 273 273 274 272 273 274 274 274 274 274
283 280 277 276 281 280 277 280 282 280 279 279 278 278 278 278 276 276 275 276 276 275 275 273 273 272 272 273 273 274 276 275 274 275 274 273 273 273 273 271 271 277 277 277

GFSCGP_sfc_thetae_129.txt.gz
Theta_e
290 284 282 284 285 286 285 283 281 284 289 287 286 284 285 291 290 288 288 288 287 287 289 289 289 288 288 288 287 288 288 288 289 290 289 290 291 291 296 297 301 306 309 312
284 282 289 290 289 287 286 283 283 286 289 287 283 282 286 288 287 287 286 285 286 286 286 287 287 286 286 286 286 287 286 287 288 288 288 289 289 291 292 295 298 300 304 305
283 286 291 289 287 286 285 284 284 284 285 284 282 280 284 288 289 288 287 286 286 285 284 285 285 284 284 284 285 286 286 286 287 288 288 287 288 289 290 290 291 295 297 300
287 292 290 288 287 287 283 287 287 284 281 277 282 274 282 285 285 285 285 283 283 283 284 285 284 283 283 284 285 286 286 286 288 288 286 285 284 284 286 287 289 291 294 297
286 287 286 285 287 288 284 288 285 284 279 277 277 275 277 284 282 283 283 284 283 283 283 283 283 283 284 284 285 286 288 287 287 286 286 285 284 285 286 287 287 289 291 294
288 290 288 288 289 289 289 285 283 281 279 274 278 277 275 280 282 283 284 283 283 283 282 283 283 283 283 284 285 286 287 285 287 286 286 286 285 285 286 287 287 288 290 292
284 286 288 290 285 286 284 280 274 273 273 273 280 277 278 282 284 285 283 282 282 282 281 281 280 282 283 283 284 285 285 284 285 285 286 286 286 287 288 288 289 290 291 293
278 278 284 288 285 283 281 281 275 272 272 275 280 275 278 285 286 286 285 283 282 281 280 280 280 282 282 283 283 284 284 284 285 285 286 287 288 288 289 291 292 292 292 293
278 279 286 287 287 287 282 278 282 278 277 273 276 279 283 285 284 285 284 282 280 279 279 279 281 281 282 283 282 284 283 283 283 285 285 286 288 288 289 290 292 293 295 296
284 278 285 286 287 286 284 286 277 278 273 271 274 275 275 279 282 284 281 279 279 278 278 279 280 280 281 281 281 282 282 282 283 284 284 285 286 288 289 289 289 291 293 294
285 282 281 284 282 281 281 279 280 280 278 272 272 270 277 279 282 280 280 280 278 277 276 277 277 279 279 280 280 281 281 281 281 282 283 284 284 287 287 287 288 289 290 290
285 281 276 280 284 285 283 281 281 275 275 276 275 275 284 280 280 281 280 281 280 278 277 277 276 275 277 279 279 280 280 280 280 282 282 282 283 286 285 285 286 287 288 289
285 279 273 277 280 283 280 283 283 282 279 276 270 273 282 281 280 280 279 279 278 278 277 276 276 275 276 278 278 279 279 279 279 280 280 280 281 283 283 283 284 284 285 286
288 280 278 276 278 280 278 281 283 280 273 276 275 275 279 280 278 279 279 279 276 276 276 275 275 277 277 278 278 278 279 278 278 279 278 278 278 280 282 282 281 282 283 283
283 278 275 279 281 281 280 279 280 276 279 274 277 277 277 281 280 278 279 278 277 276 276 276 276 276 277 278 278 278 279 278 277 277 276 276 277 279 279 280 279 280 280 281
282 276 273 269 280 280 277 279 279 278 278 277 275 278 280 281 279 278 278 278 277 276 275 276 276 276 276 277 277 278 278 278 278 276 275 275 276 276 277 277 277 277 278 278
279 273 270 270 279 279 273 279 279 278 280 280 276 280 279 278 279 278 278 278 276 276 275 275 275 276 276 276 278 277 278 278 277 276 275 274 274 273 274 275 275 275 275 277
276 274 276 271 276 267 277 284 283 281 282 282 280 278 281 280 279 279 279 276 276 275 275 275 275 276 276 277 277 278 278 277 276 276 275 275 274 272 272 273 273 273 274 275
281 278 274 274 273 276 280 283 282 280 279 283 280 281 278 277 277 275 278 278 275 274 274 272 274 276 275 276 277 277 276 276 275 275 275 275 274 273 272 271 272 273 273 274
282 281 278 276 270 270 279 285 287 285 272 282 282 279 277 277 273 272 277 276 275 274 274 273 273 275 274 273 276 272 272 274 273 274 274 275 275 274 273 272 272 273 273 273
277 276 276 276 275 278 284 286 287 272 275 282 281 279 277 276 275 276 277 275 275 274 273 273 272 270 269 269 273 270 269 268 269 272 274 274 273 274 274 273 273 273 274 274
279 276 276 278 275 273 286 285 279 281 282 282 281 279 276 275 275 274 274 274 274 273 273 269 270 267 267 269 271 270 269 266 268 268 269 269 270 272 271 272 272 272 273 273
280 282 279 280 279 282 283 282 284 284 283 281 281 280 276 274 273 273 273 274 274 273 272 271 269 267 267 269 267 269 267 268 270 268 267 264 267 269 268 269 271 271 271 272
284 287 281 283 282 282 283 283 284 283 282 282 282 278 277 275 273 273 274 275 274 274 272 271 271 267 266 265 269 267 269 269 269 268 268 269 268 269 271 270 272 271 270 271
282 286 283 281 279 281 282 283 283 280 281 281 280 279 277 276 275 275 275 275 275 274 274 274 273 273 271 271 270 268 271 273 273 272 271 271 272 268 268 271 273 271 272 274
284 283 280 278 282 283 278 279 281 279 278 280 279 278 278 277 276 276 276 276 276 275 275 273 273 273 272 273 273 274 275 275 274 274 273 271 271 271 271 268 267 275 275 276

GFSCGP_sfc_thetae_132.txt.gz
Theta_e
288 284 282 283 285 285 283 281 280 282 287 285 285 284 285 288 287 285 285 285 285 285 287 287 287 286 286 286 286 287 287 287 287 287 286 287 288 289 291 292 295 298 297 304
284 282 287 288 287 286 284 282 281 284 288 286 284 282 284 286 285 285 284 283 283 284 285 286 285 285 284 284 285 286 286 287 287 287 287 287 287 288 289 291 292 293 296 296
283 286 289 288 286 285 283 282 282 283 284 282 281 279 284 286 286 287 285 284 284 283 283 284 284 283 283 283 284 285 286 287 287 287 287 286 287 287 287 287 288 290 291 293
285 290 288 286 285 285 280 287 286 284 280 276 280 274 279 284 284 284 284 282 282 282 283 283 283 282 282 283 284 286 287 286 287 287 286 285 285 284 286 287 288 288 290 292
286 286 285 284 286 288 285 287 284 282 278 276 276 274 276 283 281 282 282 283 281 282 282 281 282 282 282 284 285 284 287 285 287 287 287 286 285 286 287 288 288 290 291 292
288 289 288 288 289 288 288 284 282 280 277 273 277 276 275 279 282 282 283 282 282 281 281 281 282 283 283 285 284 283 286 285 286 285 286 285 285 285 285 286 288 290 292 293
285 287 288 290 285 286 284 280 274 273 272 273 279 276 278 282 284 285 284 281 281 280 279 279 280 280 282 282 281 282 283 282 283 284 285 285 286 287 287 287 289 290 291 292
279 278 284 287 285 283 281 280 275 271 271 274 278 275 278 284 285 285 284 282 281 279 279 278 280 279 280 280 280 281 281 281 282 283 284 283 286 286 288 288 289 291 291 293
278 279 285 287 287 286 282 278 281 278 277 273 276 278 282 283 283 283 282 282 279 278 277 278 279 279 279 280 279 280 281 281 282 282 283 283 284 286 286 287 289 290 291 292
284 279 284 285 286 285 283 285 276 277 272 271 275 275 277 279 281 283 281 279 278 277 277 277 278 278 278 279 279 279 280 280 281 281 282 283 283 286 286 286 286 288 289 290
284 282 281 283 282 280 280 279 280 279 277 272 271 272 277 277 282 283 280 280 277 275 274 275 275 276 277 277 278 279 280 279 279 280 281 281 281 283 284 283 284 285 288 288
285 282 277 280 283 284 282 280 280 273 275 276 275 275 282 279 279 281 279 279 278 277 275 274 272 272 273 274 277 279 279 278 278 279 280 280 280 281 282 281 282 284 284 287
285 280 274 277 279 282 279 281 281 281 280 275 270 274 282 281 280 280 278 279 278 277 276 274 273 273 271 275 278 278 279 277 277 278 278 278 278 279 279 280 280 281 283 284
289 281 278 276 278 280 278 281 282 281 274 277 276 278 279 279 279 279 278 277 276 275 275 274 274 276 276 278 278 278 278 277 277 276 276 276 276 277 277 278 279 280 281 282
285 280 276 279 281 280 280 279 280 277 280 275 277 277 282 280 280 279 278 277 277 275 276 275 275 275 277 277 278 278 277 276 277 275 274 274 275 276 277 277 278 278 279 280
283 277 274 271 280 280 277 278 279 279 279 278 277 277 282 282 280 278 278 277 276 275 276 276 276 276 277 277 277 278 277 276 277 274 273 274 274 274 275 275 276 277 277 278
282 278 276 273 278 279 273 275 277 277 279 279 275 280 280 278 280 278 277 278 277 276 275 276 276 276 277 276 277 276 277 277 276 275 274 274 274 273 273 274 274 274 275 277
278 278 278 275 276 269 277 282 282 281 282 281 281 280 280 279 276 277 278 278 277 276 275 276 275 276 276 277 277 277 276 276 276 275 274 274 273 272 272 272 273 273 274 274
282 279 275 274 273 277 279 281 281 280 280 283 281 279 278 277 275 276 279 278 275 274 273 271 275 275 275 276 276 276 275 275 275 274 274 274 274 272 272 271 272 273 273 273
282 280 277 275 272 269 277 284 286 284 273 282 282 280 278 277 275 271 277 276 275 273 271 273 274 274 273 273 275 272 271 272 272 273 273 274 275 273 272 272 272 273 273 272
277 275 275 275 275 277 284 285 286 273 275 282 282 280 278 276 274 274 276 274 274 273 273 273 272 271 269 269 273 269 266 268 267 273 274 273 273 273 272 273 273 273 273 272
278 276 273 277 276 272 286 284 279 281 281 282 280 279 274 273 272 273 273 272 274 273 272 270 270 269 266 267 270 268 268 266 266 269 269 269 269 272 271 270 271 272 272 272
278 280 278 280 279 284 286 284 284 284 283 281 280 279 276 272 269 272 272 273 273 272 271 271 270 268 265 267 267 269 266 267 269 269 267 266 268 268 268 266 268 270 270 270
283 285 280 282 283 284 284 284 284 284 284 282 281 279 277 273 272 272 273 274 273 273 271 271 270 268 266 264 269 267 269 269 269 267 267 267 266 267 266 269 270 269 270 269
280 285 282 280 283 284 284 284 284 282 282 281 279 279 277 274 273 273 273 274 273 273 273 274 273 272 270 272 270 268 270 273 272 271 271 270 271 266 266 267 267 271 271 272
284 283 282 280 285 284 281 280 283 281 280 280 279 277 277 276 274 275 274 275 274 274 274 273 273 273 272 273 273 274 275 274 273 273 272 270 270 269 269 266 266 274 275 275

GFSCGP_sfc_thetae_135.txt.gz
Theta_e
292 290 287 289 289 289 288 286 285 288 292 290 291 291 291 291 290 290 289 289 289 289 290 291 290 290 290 291 291 291 291 292 292 292 291 292 292 293 295 295 297 297 297 300
290 288 292 291 289 289 287 286 286 289 291 290 290 289 290 290 289 289 288 288 288 289 289 289 289 289 289 289 290 290 291 292 291 291 291 291 291 292 293 294 295 295 296 296
290 291 291 290 289 287 287 286 286 287 289 289 288 287 288 289 289 289 288 288 287 287 287 287 287 288 288 288 289 289 290 290 291 291 291 291 292 292 292 292 293 294 295 296
289 292 289 288 288 289 285 290 289 288 285 283 287 281 286 288 288 289 288 288 287 286 287 287 286 287 287 288 289 288 289 289 290 290 289 289 287 286 289 290 291 292 294 295
290 289 288 287 289 291 288 291 288 287 285 283 283 282 285 286 287 289 289 288 287 286 285 285 285 286 287 287 288 287 288 288 288 288 288 287 286 288 289 290 290 291 293 294
291 293 291 291 291 291 291 288 286 285 284 279 284 283 285 286 288 288 289 288 286 285 285 285 285 286 286 287 286 286 287 286 287 286 286 286 285 286 287 288 288 289 292 294
289 291 292 292 289 289 288 286 281 279 278 278 282 281 285 287 289 290 290 288 286 285 284 284 284 284 284 285 285 285 285 284 285 285 285 285 284 285 285 287 288 288 290 292
284 281 287 290 291 288 285 286 281 274 275 279 282 279 285 288 289 289 288 287 285 284 283 283 284 283 283 284 284 284 283 283 284 284 283 284 285 285 287 287 287 288 288 290
282 282 289 289 289 290 284 282 286 282 280 278 282 284 286 287 287 287 287 286 285 283 283 283 283 283 282 283 283 283 282 283 283 283 283 283 284 284 285 285 286 286 287 290
287 282 286 287 290 288 287 289 282 282 275 274 280 281 283 285 287 287 287 286 285 282 282 282 282 281 282 282 283 283 283 282 282 283 283 283 283 284 284 284 283 284 286 288
288 286 283 287 285 285 284 283 283 284 281 277 276 281 288 287 288 288 288 287 284 282 280 280 279 280 280 281 281 281 281 280 281 282 282 282 281 282 282 282 282 283 285 287
289 286 281 283 286 287 286 285 285 281 279 280 279 280 286 287 287 288 287 286 284 282 281 279 278 278 278 279 280 280 280 279 280 281 280 280 280 280 280 280 281 282 283 285
288 284 280 280 284 286 284 284 285 284 283 280 277 280 285 285 286 286 286 284 283 281 280 278 278 278 278 279 279 279 279 278 278 279 278 278 277 278 278 279 280 282 282 283
292 284 283 280 282 284 282 283 284 284 280 280 281 282 286 287 285 285 284 284 282 281 279 278 278 278 279 279 279 278 278 278 278 277 277 276 276 277 277 279 280 281 282 281
290 283 280 282 283 283 282 283 284 282 283 280 282 283 286 288 287 287 285 282 280 279 279 278 278 278 279 279 279 279 278 278 277 276 275 275 276 277 278 278 279 279 280 280
286 281 279 276 282 282 280 282 283 282 283 282 281 281 288 288 286 284 283 281 280 279 278 278 278 278 278 279 278 278 278 278 278 276 275 276 276 276 276 277 278 278 278 279
285 282 281 279 281 281 278 281 281 283 283 283 279 285 286 284 284 283 282 282 281 280 278 278 278 278 278 278 278 277 277 278 277 276 275 275 275 274 275 276 276 276 276 277
282 284 284 279 279 273 284 284 285 283 284 285 285 286 284 283 280 282 283 282 281 279 278 278 278 278 278 279 278 278 277 277 277 276 276 275 274 274 274 275 275 275 276 276
285 284 279 277 276 280 283 284 283 282 283 288 287 284 280 279 281 278 282 283 281 279 278 277 278 278 278 278 278 277 276 276 276 275 276 276 275 274 274 274 275 275 275 275
284 285 284 278 275 273 281 286 289 288 280 287 286 284 280 280 280 284 281 281 278 276 276 276 277 278 276 277 277 275 275 274 274 275 275 276 276 275 274 275 275 276 275 274
280 279 278 278 277 280 286 288 289 278 282 286 286 284 281 281 284 281 280 278 277 276 275 276 276 275 275 276 276 273 273 271 272 275 275 275 276 275 275 275 276 276 275 275
280 279 278 279 277 274 288 287 283 288 287 287 286 284 281 278 276 277 276 275 275 275 275 275 274 273 273 274 274 272 271 271 273 273 273 273 274 275 275 274 275 275 275 274
281 284 281 282 282 288 290 291 291 289 289 286 286 284 281 275 274 275 275 276 275 274 274 274 273 272 272 274 275 272 272 272 273 272 271 273 273 274 274 275 275 275 274 274
286 288 285 284 287 287 288 289 289 289 289 288 287 284 281 278 275 275 276 276 275 275 274 274 273 272 271 273 275 274 273 273 273 273 273 273 274 274 274 276 276 276 275 273
287 287 286 284 286 287 289 288 290 288 287 286 284 283 281 279 277 276 276 276 275 275 275 275 275 275 274 275 274 275 275 275 274 274 274 274 273 273 274 275 276 275 276 276
287 286 285 285 289 290 288 285 287 287 285 285 283 281 281 281 278 278 277 277 276 275 276 276 276 276 275 276 276 276 277 276 275 274 274 274 274 274 274 274 274 275 275 275

GFSCGP_sfc_thetae_141.txt.gz
Theta_e
305 301 298 301 300 299 297 296 296 299 301 297 298 299 302 304 303 303 303 303 303 302 302 302 302 303 304 304 304 303 303 304 303 303 302 302 302 304 305 306 307 307 307 307
302 297 303 301 299 297 296 295 295 299 300 298 298 299 302 303 303 303 304 303 303 302 302 301 302 303 303 303 303 302 302 302 302 301 300 301 301 302 303 305 306 305 305 305
299 302 300 298 297 295 296 295 295 295 299 300 298 297 299 303 303 303 303 303 303 302 301 300 301 301 302 301 301 300 301 301 301 300 300 300 300 300 300 300 299 301 301 300
302 305 302 300 297 298 293 299 296 295 294 291 297 289 296 300 298 300 301 302 302 301 300 300 300 300 300 300 301 301 301 300 300 300 298 296 295 293 295 296 296 296 297 296
300 299 298 296 298 299 295 298 297 296 295 294 294 291 295 298 297 298 301 302 303 302 300 299 299 299 299 300 300 301 300 299 299 298 297 295 293 293 293 292 291 291 293 293
302 304 300 299 299 299 299 296 295 296 294 287 292 292 292 295 296 297 300 302 302 301 299 298 299 299 299 300 300 300 299 298 298 297 296 294 291 290 289 289 288 289 290 292
301 300 301 300 295 298 296 294 288 286 286 285 293 290 293 297 298 298 298 301 302 301 299 298 298 298 297 297 298 298 297 296 296 295 295 293 291 289 287 287 287 287 288 289
292 290 298 300 296 294 294 294 288 281 283 287 291 287 294 298 299 301 300 301 302 300 299 298 297 297 295 295 295 295 294 294 294 294 293 292 290 288 287 287 287 287 287 288
292 292 299 298 298 298 294 291 296 289 290 286 289 292 296 297 297 298 299 300 300 300 299 298 296 296 294 293 293 293 291 291 292 292 292 291 289 287 286 287 287 287 288 288
295 288 295 294 297 299 296 297 287 289 280 279 286 288 290 293 295 297 298 299 300 300 298 296 295 293 293 291 292 291 289 289 291 292 291 289 288 286 286 287 286 286 287 288
297 293 290 292 291 291 291 290 290 291 289 282 281 288 298 296 295 296 297 298 301 300 298 295 293 292 289 289 289 287 286 287 288 289 289 287 285 285 285 285 286 285 286 287
296 293 287 289 294 296 295 292 292 286 284 287 286 288 298 299 299 298 298 299 300 301 298 294 286 285 285 284 284 284 285 285 285 285 286 285 284 284 284 284 285 285 284 286
295 290 285 286 290 293 290 293 293 292 292 286 284 288 299 298 297 299 299 299 298 298 296 292 288 284 283 285 283 283 283 282 283 283 283 283 283 283 283 283 285 285 285 285
297 292 290 284 286 292 289 290 292 291 286 286 288 290 294 296 297 299 299 299 298 296 294 292 290 287 286 284 283 282 282 282 282 281 282 281 281 282 283 284 284 284 284 284
294 288 291 290 291 291 290 290 291 289 290 286 289 289 293 296 297 297 297 297 297 295 293 291 290 288 287 286 285 285 283 281 281 280 280 280 281 282 282 283 283 284 283 282
294 288 287 286 290 290 288 290 291 291 291 290 290 289 297 298 297 295 295 295 295 294 292 290 289 287 286 285 285 284 284 282 282 279 278 280 280 280 281 282 283 282 282 282
291 291 285 282 289 288 284 289 290 290 292 291 287 292 296 295 295 295 296 295 294 294 291 290 288 286 286 286 285 284 283 283 283 280 279 279 279 279 280 281 281 281 281 281
291 289 289 284 286 277 290 294 294 292 293 294 293 294 295 295 296 295 296 296 295 293 291 289 288 287 286 287 286 285 284 283 282 282 281 279 278 279 280 280 280 281 282 280
295 291 286 282 282 286 288 292 290 288 289 294 293 295 296 295 294 295 294 296 295 294 292 291 288 287 287 286 285 284 283 283 282 281 281 281 280 279 280 279 280 281 281 281
294 294 288 285 280 277 288 293 296 294 286 296 294 294 294 294 289 295 294 294 292 288 288 286 287 287 285 285 284 283 282 281 280 280 281 281 282 281 280 281 281 282 282 282
285 287 284 284 282 286 293 295 296 283 287 295 295 295 295 293 295 293 294 293 287 284 283 285 285 283 281 282 282 278 278 277 278 280 280 280 281 281 281 281 282 282 282 282
285 283 283 285 282 279 295 295 289 294 298 297 297 298 290 288 286 287 288 286 285 283 282 282 281 280 280 280 279 277 276 277 278 278 278 279 280 281 282 281 282 282 283 282
285 289 287 288 287 295 298 297 300 299 298 298 298 299 293 285 286 287 286 286 285 282 282 281 280 279 279 280 280 277 277 278 277 277 277 278 280 281 282 282 282 282 282 282
292 294 291 290 293 295 298 299 299 300 299 299 299 299 297 290 287 286 287 287 285 284 282 282 280 278 278 280 280 279 278 278 277 277 278 279 280 281 282 282 281 280 280 281
293 294 291 291 293 296 297 298 299 299 300 299 299 298 296 293 289 287 287 288 286 285 283 283 281 280 279 281 280 279 279 279 279 279 279 279 280 280 279 278 279 278 277 277
294 293 291 290 295 296 296 299 299 298 298 299 297 295 296 295 291 289 288 289 287 285 284 283 283 282 281 281 280 280 280 280 279 279 279 280 280 281 280 279 276 276 276 275

GFSCGP_sfc_thetae_144.txt.gz
Theta_e
305 300 296 299 301 300 298 296 295 299 301 299 298 298 300 303 303 303 303 303 303 303 302 303 304 305 305 305 304 302 302 303 302 300 299 299 298 300 301 302 304 303 303 304
302 297 302 304 302 299 297 295 295 298 300 299 297 297 301 303 303 303 303 303 303 302 301 302 303 304 304 303 302 302 301 301 301 299 299 299 298 299 300 301 299 300 298 298
299 302 305 301 299 296 296 294 294 295 299 300 297 295 298 302 304 304 304 305 304 303 302 301 301 302 304 301 301 300 301 300 300 299 298 297 297 297 296 294 295 294 294 294
302 306 302 300 298 299 294 300 297 295 293 289 298 287 296 299 300 301 302 302 302 301 301 301 301 301 301 301 302 301 301 300 299 298 296 294 292 290 291 292 291 291 293 293
300 302 302 299 300 302 298 300 297 296 293 293 293 289 293 299 296 297 300 301 302 302 301 300 300 299 300 301 301 301 301 299 298 297 296 293 291 291 290 290 289 290 290 291
302 307 304 301 303 302 301 297 296 295 293 286 290 290 290 294 297 299 300 301 302 301 300 300 300 299 300 301 301 301 299 298 296 296 295 292 290 289 287 287 287 287 288 289
299 300 304 302 296 299 297 292 285 284 284 284 293 290 293 297 299 299 299 301 302 302 300 299 299 299 298 298 298 297 296 294 294 294 293 292 290 288 287 286 286 286 286 287
293 291 299 302 297 294 294 292 287 280 282 286 293 287 290 298 300 301 300 302 303 301 301 300 299 298 297 296 295 294 292 291 293 293 292 291 289 288 287 286 286 286 286 287
291 292 302 303 300 297 293 289 295 289 290 286 288 293 295 297 297 298 298 300 301 301 300 299 298 297 295 294 293 291 289 290 291 292 291 289 288 286 285 286 286 286 286 287
296 289 296 296 299 299 295 298 289 289 280 279 285 287 289 292 294 297 297 298 300 301 300 298 297 295 293 292 292 289 288 287 289 289 288 286 285 285 286 286 285 284 285 286
298 294 291 294 292 291 292 291 292 291 288 281 280 289 297 296 298 297 299 299 301 302 299 297 295 293 291 288 288 286 287 286 286 286 286 285 284 285 285 285 285 285 285 285
299 295 288 289 295 297 296 293 292 285 283 287 285 286 299 300 300 299 298 299 301 302 299 293 285 285 286 284 283 284 284 283 284 284 284 284 284 284 284 284 284 284 284 286
298 291 285 287 290 293 290 293 293 292 291 286 283 288 299 299 298 300 299 300 300 301 297 292 287 284 282 285 281 282 282 281 282 283 283 282 282 282 283 283 284 283 283 283
298 292 289 284 287 291 288 290 292 291 285 286 286 288 294 296 296 297 299 300 299 299 296 293 289 288 285 285 281 279 281 281 281 281 281 280 281 282 282 283 283 283 282 281
297 288 288 290 290 290 290 290 291 289 289 285 288 289 292 295 296 297 298 297 297 297 295 293 291 289 288 285 284 283 282 279 280 278 279 279 280 281 282 283 282 282 281 280
295 288 288 284 290 290 288 290 291 291 290 290 290 289 296 298 299 297 297 296 295 297 295 293 291 290 288 286 286 285 283 281 281 277 276 278 279 280 280 281 282 281 280 279
291 291 286 283 289 288 283 287 289 290 292 291 286 292 296 295 296 297 297 297 295 296 294 292 291 289 288 286 285 284 283 284 281 278 276 276 277 277 278 281 280 280 278 278
289 288 287 283 286 276 289 294 294 292 293 294 293 294 295 296 297 298 298 297 296 296 294 292 290 288 287 286 286 285 284 283 282 281 279 277 276 276 277 278 279 278 279 277
295 290 285 281 282 286 288 291 291 289 288 294 293 294 295 295 296 296 296 297 298 296 294 291 290 288 287 286 285 284 283 283 281 281 281 280 279 276 277 276 277 279 279 278
294 294 287 284 279 277 288 293 296 296 285 295 296 295 295 295 290 293 295 296 290 288 288 287 287 288 285 285 285 283 282 281 280 281 281 281 281 280 280 279 277 279 281 279
286 287 284 284 281 285 292 294 297 284 288 296 295 296 297 294 296 295 295 289 287 285 283 284 283 280 279 280 281 279 278 276 277 280 281 281 281 281 281 281 282 282 281 281
284 283 283 284 281 278 295 294 288 296 300 298 298 299 288 289 288 288 288 285 285 283 282 282 279 278 278 278 278 277 275 276 277 277 278 278 279 281 282 281 281 282 282 281
284 288 286 286 286 296 298 298 300 301 299 300 299 300 292 286 286 287 287 286 285 283 282 282 278 277 278 278 277 275 275 276 276 276 275 278 279 280 281 281 280 281 280 279
292 295 289 290 293 294 296 299 300 300 300 300 300 300 295 289 287 287 288 287 285 284 282 281 279 277 276 278 279 277 277 277 276 277 277 278 279 280 281 280 278 276 275 278
293 293 290 290 293 295 297 299 300 300 301 300 300 300 298 295 290 288 288 288 287 284 283 282 280 279 278 279 279 277 277 278 278 278 279 279 280 278 276 275 276 275 274 275
293 292 289 288 296 295 296 300 301 299 299 299 299 298 298 297 293 290 289 290 288 285 284 282 281 280 280 280 279 279 279 279 279 278 279 279 279 279 277 275 273 276 276 276

GFSCGP_sfc_thetae_150.txt.gz
Theta_e
298 290 289 292 293 294 292 289 287 288 294 291 289 290 294 296 295 293 294 294 294 294 295 297 296 296 294 294 294 294 293 293 292 291 290 290 289 290 290 291 291 290 290 290
297 290 296 297 297 295 293 290 288 291 294 291 289 289 294 295 296 296 295 294 293 294 295 296 295 294 293 293 293 293 293 292 291 290 289 289 288 289 289 289 289 289 289 289
297 298 302 298 296 294 292 289 288 289 291 290 288 286 289 295 296 297 297 296 295 294 294 296 295 293 292 292 292 293 291 291 291 290 289 288 287 287 287 286 286 287 288 288
299 302 299 296 295 295 289 294 293 291 287 282 289 280 286 291 294 295 296 294 294 294 296 296 293 291 291 291 292 292 291 290 291 289 287 285 283 282 284 285 286 286 287 287
295 296 296 295 296 297 293 298 295 292 288 285 286 283 285 291 290 293 294 294 294 295 295 294 292 291 291 292 291 290 289 290 289 287 286 284 283 283 283 283 283 284 285 286
298 304 301 299 301 299 299 294 292 290 287 281 286 286 287 287 292 293 294 294 294 293 293 293 292 292 290 290 289 288 288 288 288 286 285 283 282 282 282 282 282 283 284 285
300 301 305 306 297 296 293 289 281 280 279 280 288 287 288 290 293 295 294 293 293 293 292 291 290 290 289 287 286 286 287 286 287 285 284 283 282 282 283 281 282 281 283 284
293 290 300 304 300 293 290 289 283 279 278 280 288 282 285 291 295 297 296 294 293 292 292 291 291 290 288 286 284 285 286 285 285 284 282 282 282 282 282 282 282 281 284 284
292 291 299 304 305 298 291 286 292 286 286 280 282 284 290 292 293 294 293 293 291 292 291 291 290 288 286 284 283 283 284 284 284 283 281 280 281 281 280 281 281 281 284 284
296 289 297 296 298 298 296 294 286 286 278 277 280 282 283 288 290 293 292 291 292 291 290 290 289 287 286 284 283 283 283 282 282 281 281 280 280 280 280 280 279 280 281 281
296 293 292 295 291 290 291 289 290 289 284 279 276 280 291 290 293 293 293 294 293 292 290 289 288 286 285 283 283 281 281 280 280 280 280 279 279 279 279 279 279 279 280 280
295 293 288 291 296 295 294 292 291 283 281 284 281 278 292 292 293 294 295 297 295 293 290 288 284 283 281 279 278 278 280 279 280 280 279 279 278 278 278 278 278 279 278 279
292 288 283 284 287 289 288 289 291 291 286 282 275 276 293 293 293 295 294 293 294 290 286 284 282 279 276 278 277 276 275 274 277 279 278 277 275 276 274 276 277 278 277 277
296 290 285 281 284 286 284 288 290 289 283 280 279 279 288 292 292 294 294 293 291 289 287 284 282 280 279 279 275 273 275 273 273 274 274 273 271 271 272 275 277 278 277 277
292 283 286 289 291 291 288 287 288 285 286 283 283 284 287 291 293 293 294 293 291 288 286 285 283 281 280 278 278 277 276 271 269 271 271 268 270 274 277 277 278 277 276 276
292 284 285 281 289 289 286 288 288 286 288 286 286 285 291 293 294 291 292 293 291 289 288 287 285 282 281 280 279 279 278 274 274 269 267 269 271 271 274 275 276 276 276 274
287 284 283 281 287 286 281 283 285 286 288 288 283 288 291 291 293 291 291 293 292 291 290 288 285 284 283 281 280 278 277 277 276 271 265 268 268 267 269 276 275 273 270 272
284 284 282 281 283 276 285 291 290 288 289 290 290 289 291 291 290 291 291 291 291 291 289 288 286 284 284 283 281 279 278 277 276 276 274 269 269 268 267 269 269 268 269 268
290 286 282 280 279 282 285 289 288 286 286 291 289 291 291 290 289 287 291 291 290 289 288 287 286 284 283 282 281 280 278 277 277 277 277 278 274 270 269 270 270 269 268 267
291 288 284 281 277 274 282 289 293 292 281 291 291 289 289 288 279 281 289 289 286 282 283 283 283 282 281 280 281 279 278 278 277 278 278 279 279 279 276 273 271 272 272 270
284 284 281 281 280 281 288 291 293 280 281 290 291 289 288 284 285 287 287 284 282 277 279 280 280 280 278 279 279 276 275 275 275 279 279 280 280 279 279 278 279 278 277 276
284 282 281 282 279 277 292 291 285 286 288 289 289 288 285 287 283 282 280 280 281 278 276 274 276 275 271 277 277 275 275 272 274 275 275 275 275 279 279 278 278 280 278 276
280 285 282 284 282 290 292 290 291 292 289 289 290 288 287 284 285 283 281 281 280 277 275 273 275 272 267 272 277 275 273 273 273 273 273 271 273 274 272 273 272 275 276 275
287 291 285 285 286 289 292 293 294 294 292 293 293 290 288 286 284 286 281 281 280 278 277 276 274 273 271 270 276 276 274 274 274 272 272 271 275 272 270 272 273 272 270 271
285 287 283 282 285 289 291 293 294 294 294 294 294 291 290 287 285 285 282 282 281 279 278 277 276 276 275 275 273 274 274 275 275 275 275 277 277 273 271 270 271 272 267 272
286 285 282 281 288 289 289 293 294 293 293 294 294 293 291 289 286 286 284 284 282 280 279 278 278 277 276 275 274 275 276 276 276 276 277 277 275 274 273 272 272 277 277 276